| time (UTC) | temp F | wind direction | speed knots | gust knots | rain 1hr in | rain 24hr in | rain mn in | humidity % | barometer mb |
| 20260505195157 | 80 | 85 | 0.9 | 9.6 | 0.00 | 0.00 | 0.00 | 48 | 1005.6 |
| 20260505195058 | 81 | 336 | 4.3 | 9.6 | 0.00 | 0.00 | 0.00 | 47 | 1005.6 |
| 20260505194959 | 81 | 154 | 7.0 | 9.6 | 0.00 | 0.00 | 0.00 | 48 | 1005.5 |
| 20260505194858 | 81 | 134 | 7.0 | 9.6 | 0.00 | 0.00 | 0.00 | 50 | 1005.5 |
| 20260505194759 | 81 | 312 | 1.7 | 9.6 | 0.00 | 0.00 | 0.00 | 48 | 1005.6 |
| 20260505194658 | 81 | 224 | 2.6 | 9.6 | 0.00 | 0.00 | 0.00 | 49 | 1005.6 |
| 20260505194558 | 81 | 223 | 2.6 | 9.6 | 0.00 | 0.00 | 0.00 | 47 | 1005.7 |
| 20260505194459 | 81 | 213 | 3.5 | 9.6 | 0.00 | 0.00 | 0.00 | 49 | 1005.7 |
| 20260505194258 | 81 | 254 | 3.5 | 9.6 | 0.00 | 0.00 | 0.00 | 47 | 1005.6 |
| 20260505194159 | 81 | 136 | 3.5 | 9.6 | 0.00 | 0.00 | 0.00 | 48 | 1005.6 |
| 20260505194057 | 81 | 322 | 1.7 | 9.6 | 0.00 | 0.00 | 0.00 | 47 | 1005.6 |
| 20260505193858 | 81 | 273 | 3.5 | 9.6 | 0.00 | 0.00 | 0.00 | 51 | 1005.6 |
| 20260505193758 | 81 | 205 | 6.1 | 10.4 | 0.00 | 0.00 | 0.00 | 47 | 1005.5 |
| 20260505193658 | 81 | 328 | 2.6 | 9.6 | 0.00 | 0.00 | 0.00 | 48 | 1005.5 |
| 20260505193500 | 81 | 208 | 2.6 | 13.0 | 0.00 | 0.00 | 0.00 | 52 | 1005.5 |
| 20260505193258 | 81 | 162 | 3.5 | 13.0 | 0.00 | 0.00 | 0.00 | 48 | 1005.6 |
| 20260505193158 | 81 | 160 | 4.3 | 13.0 | 0.00 | 0.00 | 0.00 | 48 | 1005.5 |
| 20260505193102 | 80 | 140 | 6.1 | 13.0 | 0.00 | 0.00 | 0.00 | 47 | 1005.6 |
| 20260505192959 | 80 | 102 | 1.7 | 13.0 | 0.00 | 0.00 | 0.00 | 49 | 1005.7 |
| 20260505192857 | 80 | 173 | 5.2 | 13.0 | 0.00 | 0.00 | 0.00 | 48 | 1005.7 |
| 20260505192758 | 81 | 276 | 2.6 | 13.0 | 0.00 | 0.00 | 0.00 | 47 | 1005.7 |
| 20260505192658 | 81 | 226 | 2.6 | 13.0 | 0.00 | 0.00 | 0.00 | 47 | 1005.6 |
| 20260505192458 | 81 | 165 | 11.3 | 11.3 | 0.00 | 0.00 | 0.00 | 48 | 1005.7 |
| 20260505192357 | 81 | 135 | 3.5 | 13.0 | 0.00 | 0.00 | 0.00 | 47 | 1005.7 |
| 20260505192259 | 81 | 213 | 3.5 | 13.0 | 0.00 | 0.00 | 0.00 | 48 | 1005.6 |
| 20260505192157 | 81 | 204 | 1.7 | 13.0 | 0.00 | 0.00 | 0.00 | 50 | 1005.6 |
| 20260505191858 | 81 | 167 | 3.5 | 13.0 | 0.00 | 0.00 | 0.00 | 48 | 1005.7 |
| 20260505191758 | 81 | 227 | 1.7 | 13.0 | 0.00 | 0.00 | 0.00 | 49 | 1005.7 |
| 20260505191558 | 80 | 145 | 2.6 | 13.0 | 0.00 | 0.00 | 0.00 | 47 | 1005.7 |
| 20260505191500 | 80 | 160 | 12.2 | 13.0 | 0.00 | 0.00 | 0.00 | 49 | 1005.8 |
| 20260505191359 | 80 | 190 | 1.7 | 9.6 | 0.00 | 0.00 | 0.00 | 47 | 1005.8 |
| 20260505191258 | 80 | 282 | 2.6 | 11.3 | 0.00 | 0.00 | 0.00 | 47 | 1005.9 |
| 20260505191157 | 81 | 256 | 2.6 | 7.0 | 0.00 | 0.00 | 0.00 | 49 | 1005.8 |
| 20260505191000 | 81 | 261 | 2.6 | 5.2 | 0.00 | 0.00 | 0.00 | 47 | 1005.8 |
| 20260505190857 | 81 | 292 | 4.3 | 7.8 | 0.00 | 0.00 | 0.00 | 50 | 1006.0 |
| 20260505190759 | 81 | 275 | 2.6 | 7.8 | 0.00 | 0.00 | 0.00 | 50 | 1005.9 |
| 20260505190657 | 81 | 169 | 3.5 | 7.8 | 0.00 | 0.00 | 0.00 | 50 | 1005.9 |
| 20260505190459 | 81 | 254 | 1.7 | 8.7 | 0.00 | 0.00 | 0.00 | 47 | 1005.9 |
| 20260505190257 | 81 | 275 | 0.9 | 8.7 | 0.00 | 0.00 | 0.00 | 49 | 1005.9 |
| 20260505190158 | 81 | 247 | 0.9 | 8.7 | 0.00 | 0.00 | 0.00 | 46 | 1005.9 |
| 20260505190057 | 81 | 292 | 3.5 | 8.7 | 0.00 | 0.00 | 0.00 | 46 | 1005.9 |
| 20260505185959 | 81 | 146 | 7.0 | 8.7 | 0.00 | 0.00 | 0.00 | 47 | 1006.0 |
| 20260505185858 | 81 | 232 | 3.5 | 8.7 | 0.00 | 0.00 | 0.00 | 50 | 1005.9 |
| 20260505185758 | 81 | 163 | 3.5 | 8.7 | 0.00 | 0.00 | 0.00 | 48 | 1005.9 |
| 20260505185658 | 81 | 267 | 8.7 | 8.7 | 0.00 | 0.00 | 0.00 | 48 | 1005.9 |
| 20260505185559 | 81 | 221 | 5.2 | 8.7 | 0.00 | 0.00 | 0.00 | 49 | 1005.9 |
| 20260505185500 | 81 | 271 | 2.6 | 7.0 | 0.00 | 0.00 | 0.00 | 48 | 1005.9 |
| 20260505185257 | 81 | 265 | 2.6 | 7.0 | 0.00 | 0.00 | 0.00 | 48 | 1006.1 |
| 20260505185158 | 81 | 206 | 3.5 | 7.0 | 0.00 | 0.00 | 0.00 | 50 | 1006.0 |
| 20260505185058 | 81 | 259 | 1.7 | 7.0 | 0.00 | 0.00 | 0.00 | 49 | 1006.1 |
| 20260505184959 | 81 | 269 | 2.6 | 10.4 | 0.00 | 0.00 | 0.00 | 49 | 1006.1 |
| 20260505184759 | 80 | 215 | 1.7 | 10.4 | 0.00 | 0.00 | 0.00 | 52 | 1006.2 |
| 20260505184559 | 80 | 85 | 0.9 | 10.4 | 0.00 | 0.00 | 0.00 | 49 | 1006.3 |
| 20260505184459 | 80 | 258 | 1.7 | 10.4 | 0.00 | 0.00 | 0.00 | 52 | 1006.2 |
| 20260505184359 | 80 | 200 | 1.7 | 10.4 | 0.00 | 0.00 | 0.00 | 49 | 1006.2 |
| 20260505184258 | 80 | 231 | 1.7 | 10.4 | 0.00 | 0.00 | 0.00 | 49 | 1006.4 |
| 20260505184158 | 80 | 219 | 1.7 | 10.4 | 0.00 | 0.00 | 0.00 | 48 | 1006.3 |
| 20260505184058 | 80 | 165 | 5.2 | 10.4 | 0.00 | 0.00 | 0.00 | 49 | 1006.3 |
| 20260505183959 | 80 | 34 | 1.7 | 10.4 | 0.00 | 0.00 | 0.00 | 49 | 1006.3 |
| 20260505183858 | 80 | 270 | 1.7 | 10.4 | 0.00 | 0.00 | 0.00 | 47 | 1006.4 |
| 20260505183758 | 80 | 330 | 3.5 | 10.4 | 0.00 | 0.00 | 0.00 | 48 | 1006.5 |
| 20260505183658 | 80 | 316 | 3.5 | 10.4 | 0.00 | 0.00 | 0.00 | 49 | 1006.4 |
| 20260505183558 | 80 | 147 | 8.7 | 10.4 | 0.00 | 0.00 | 0.00 | 48 | 1006.4 |
| 20260505183459 | 80 | 273 | 8.7 | 8.7 | 0.00 | 0.00 | 0.00 | 47 | 1006.4 |
| 20260505183357 | 80 | 138 | 6.1 | 7.8 | 0.00 | 0.00 | 0.00 | 50 | 1006.4 |
| 20260505183258 | 80 | 72 | 0.9 | 7.8 | 0.00 | 0.00 | 0.00 | 48 | 1006.3 |
| 20260505183158 | 80 | 88 | 0.9 | 7.8 | 0.00 | 0.00 | 0.00 | 47 | 1006.4 |
| 20260505182959 | 80 | 208 | 6.1 | 7.0 | 0.00 | 0.00 | 0.00 | 49 | 1006.4 |
| 20260505182857 | 80 | 261 | 2.6 | 7.0 | 0.00 | 0.00 | 0.00 | 49 | 1006.4 |
| 20260505182759 | 80 | 162 | 3.5 | 12.2 | 0.00 | 0.00 | 0.00 | 47 | 1006.4 |
| 20260505182658 | 80 | 218 | 7.0 | 14.8 | 0.00 | 0.00 | 0.00 | 47 | 1006.5 |
| 20260505182500 | 81 | 209 | 0.9 | 14.8 | 0.00 | 0.00 | 0.00 | 47 | 1006.6 |
| 20260505182359 | 81 | 265 | 5.2 | 14.8 | 0.00 | 0.00 | 0.00 | 51 | 1006.7 |
| 20260505182258 | 81 | 235 | 1.7 | 14.8 | 0.00 | 0.00 | 0.00 | 48 | 1006.6 |
| 20260505182158 | 81 | 244 | 6.1 | 14.8 | 0.00 | 0.00 | 0.00 | 48 | 1006.6 |
| 20260505182059 | 81 | 215 | 6.1 | 14.8 | 0.00 | 0.00 | 0.00 | 47 | 1006.5 |
| 20260505182001 | 81 | 158 | 1.7 | 14.8 | 0.00 | 0.00 | 0.00 | 47 | 1006.5 |
| 20260505181758 | 81 | 174 | 16.5 | 16.5 | 0.00 | 0.00 | 0.00 | 49 | 1006.5 |
| 20260505181658 | 81 | 252 | 2.6 | 10.4 | 0.00 | 0.00 | 0.00 | 49 | 1006.6 |
| 20260505181557 | 81 | 183 | 1.7 | 10.4 | 0.00 | 0.00 | 0.00 | 47 | 1006.5 |
| 20260505181358 | 81 | 280 | 7.0 | 9.6 | 0.00 | 0.00 | 0.00 | 47 | 1006.5 |
| 20260505181258 | 81 | 236 | 5.2 | 9.6 | 0.00 | 0.00 | 0.00 | 50 | 1006.4 |
| 20260505181159 | 81 | 109 | 1.7 | 9.6 | 0.00 | 0.00 | 0.00 | 48 | 1006.5 |
| 20260505181000 | 81 | 272 | 3.5 | 7.8 | 0.00 | 0.00 | 0.00 | 47 | 1006.5 |
| 20260505180859 | 81 | 223 | 4.3 | 7.8 | 0.00 | 0.00 | 0.00 | 47 | 1006.6 |
| 20260505180758 | 81 | 312 | 1.7 | 7.8 | 0.00 | 0.00 | 0.00 | 52 | 1006.6 |
| 20260505180658 | 81 | 247 | 1.7 | 7.8 | 0.00 | 0.00 | 0.00 | 49 | 1006.6 |
| 20260505180558 | 81 | 207 | 1.7 | 7.8 | 0.00 | 0.00 | 0.00 | 50 | 1006.6 |
| 20260505180500 | 81 | 248 | 0.9 | 7.8 | 0.00 | 0.00 | 0.00 | 49 | 1006.6 |
| 20260505180358 | 81 | 263 | 1.7 | 7.8 | 0.00 | 0.00 | 0.00 | 48 | 1006.7 |
| 20260505180258 | 81 | 279 | 3.5 | 7.8 | 0.00 | 0.00 | 0.00 | 50 | 1006.7 |
| 20260505180159 | 81 | 259 | 7.8 | 7.8 | 0.00 | 0.00 | 0.00 | 49 | 1006.7 |
| 20260505175758 | 81 | 138 | 2.6 | 7.0 | 0.00 | 0.00 | 0.00 | 50 | 1006.8 |
| 20260505175700 | 81 | 255 | 2.6 | 7.0 | 0.00 | 0.00 | 0.00 | 50 | 1006.8 |
| 20260505175357 | 81 | 111 | 1.7 | 7.0 | 0.00 | 0.00 | 0.00 | 48 | 1006.8 |
| 20260505175258 | 81 | 161 | 1.7 | 7.0 | 0.00 | 0.00 | 0.00 | 50 | 1006.8 |
| 20260505175159 | 81 | 140 | 4.3 | 7.0 | 0.00 | 0.00 | 0.00 | 55 | 1006.8 |
| 20260505175058 | 81 | 306 | 0.9 | 7.0 | 0.00 | 0.00 | 0.00 | 55 | 1006.9 |
| 20260505175000 | 81 | 205 | 2.6 | 7.0 | 0.00 | 0.00 | 0.00 | 49 | 1006.9 |
| 20260505174858 | 81 | 271 | 3.5 | 7.0 | 0.00 | 0.00 | 0.00 | 49 | 1006.9 |
| 20260505174758 | 80 | 267 | 2.6 | 7.0 | 0.00 | 0.00 | 0.00 | 51 | 1006.9 |
| 20260505174658 | 80 | 267 | 0.9 | 7.0 | 0.00 | 0.00 | 0.00 | 49 | 1006.9 |
| 20260505174557 | 80 | 267 | 6.1 | 7.8 | 0.00 | 0.00 | 0.00 | 50 | 1006.8 |
| 20260505174500 | 80 | 226 | 3.5 | 7.8 | 0.00 | 0.00 | 0.00 | 52 | 1006.8 |
| 20260505174359 | 80 | 81 | 1.7 | 7.8 | 0.00 | 0.00 | 0.00 | 49 | 1006.7 |
| 20260505174257 | 80 | 148 | 4.3 | 7.8 | 0.00 | 0.00 | 0.00 | 50 | 1006.8 |
| 20260505174158 | 80 | 250 | 2.6 | 7.8 | 0.00 | 0.00 | 0.00 | 50 | 1006.9 |
| 20260505174100 | 80 | 230 | 6.1 | 7.8 | 0.00 | 0.00 | 0.00 | 52 | 1006.8 |
| 20260505173959 | 80 | 167 | 2.6 | 7.8 | 0.00 | 0.00 | 0.00 | 53 | 1006.8 |
| 20260505173758 | 79 | 188 | 0.9 | 7.8 | 0.00 | 0.00 | 0.00 | 52 | 1006.8 |
| 20260505173700 | 79 | 188 | 1.7 | 7.8 | 0.00 | 0.00 | 0.00 | 51 | 1006.8 |
| 20260505173557 | 79 | 286 | 0.9 | 7.8 | 0.00 | 0.00 | 0.00 | 50 | 1006.8 |
| 20260505173500 | 79 | 182 | 1.7 | 7.8 | 0.00 | 0.00 | 0.00 | 50 | 1006.8 |
| 20260505173358 | 79 | 140 | 0.9 | 7.8 | 0.00 | 0.00 | 0.00 | 48 | 1006.9 |
| 20260505173258 | 80 | 124 | 6.1 | 7.8 | 0.00 | 0.00 | 0.00 | 48 | 1006.9 |
| 20260505173159 | 80 | 135 | 6.1 | 7.0 | 0.00 | 0.00 | 0.00 | 53 | 1007.0 |
| 20260505173059 | 80 | 159 | 0.9 | 7.0 | 0.00 | 0.00 | 0.00 | 50 | 1007.0 |
| 20260505172959 | 80 | 160 | 1.7 | 7.0 | 0.00 | 0.00 | 0.00 | 48 | 1007.0 |
| 20260505172859 | 80 | 140 | 4.3 | 7.8 | 0.00 | 0.00 | 0.00 | 48 | 1007.0 |
| 20260505172758 | 80 | 192 | 1.7 | 7.8 | 0.00 | 0.00 | 0.00 | 49 | 1007.0 |
| 20260505172659 | 80 | 197 | 4.3 | 7.8 | 0.00 | 0.00 | 0.00 | 49 | 1007.0 |
| 20260505172557 | 80 | 202 | 0.0 | 7.8 | 0.00 | 0.00 | 0.00 | 50 | 1007.0 |
| 20260505172358 | 80 | 201 | 0.9 | 7.8 | 0.00 | 0.00 | 0.00 | 50 | 1007.0 |
| 20260505172158 | 80 | 284 | 1.7 | 7.8 | 0.00 | 0.00 | 0.00 | 50 | 1006.9 |
| 20260505172057 | 80 | 284 | 3.5 | 7.8 | 0.00 | 0.00 | 0.00 | 49 | 1006.9 |
| 20260505171858 | 80 | 347 | 3.5 | 7.8 | 0.00 | 0.00 | 0.00 | 49 | 1007.0 |
| 20260505171758 | 80 | 260 | 1.7 | 11.3 | 0.00 | 0.00 | 0.00 | 49 | 1007.0 |
| 20260505171659 | 80 | 273 | 2.6 | 11.3 | 0.00 | 0.00 | 0.00 | 48 | 1007.0 |
| 20260505171558 | 80 | 242 | 0.9 | 11.3 | 0.00 | 0.00 | 0.00 | 48 | 1007.0 |
| 20260505171258 | 80 | 309 | 4.3 | 11.3 | 0.00 | 0.00 | 0.00 | 49 | 1007.1 |
| 20260505171159 | 80 | 282 | 1.7 | 11.3 | 0.00 | 0.00 | 0.00 | 47 | 1007.1 |
| 20260505171058 | 80 | 274 | 7.0 | 11.3 | 0.00 | 0.00 | 0.00 | 49 | 1007.1 |
| 20260505170959 | 80 | 44 | 3.5 | 11.3 | 0.00 | 0.00 | 0.00 | 50 | 1007.1 |
| 20260505170858 | 80 | 261 | 7.8 | 11.3 | 0.00 | 0.00 | 0.00 | 48 | 1007.1 |
| 20260505170757 | 80 | 252 | 3.5 | 8.7 | 0.00 | 0.00 | 0.00 | 51 | 1007.1 |
| 20260505170657 | 80 | 259 | 3.5 | 8.7 | 0.00 | 0.00 | 0.00 | 48 | 1007.1 |
| 20260505170459 | 80 | 261 | 1.7 | 8.7 | 0.00 | 0.00 | 0.00 | 48 | 1007.2 |
| 20260505170358 | 80 | 273 | 2.6 | 8.7 | 0.00 | 0.00 | 0.00 | 49 | 1007.2 |
| 20260505170257 | 80 | 288 | 3.5 | 8.7 | 0.00 | 0.00 | 0.00 | 50 | 1007.2 |
| 20260505170158 | 80 | 236 | 2.6 | 8.7 | 0.00 | 0.00 | 0.00 | 48 | 1007.2 |
| 20260505170059 | 80 | 302 | 3.5 | 9.6 | 0.00 | 0.00 | 0.00 | 53 | 1007.2 |
| 20260505165959 | 80 | 263 | 2.6 | 9.6 | 0.00 | 0.00 | 0.00 | 49 | 1007.1 |
| 20260505165857 | 80 | 248 | 2.6 | 9.6 | 0.00 | 0.00 | 0.00 | 48 | 1007.2 |
| 20260505165759 | 80 | 268 | 5.2 | 9.6 | 0.00 | 0.00 | 0.00 | 48 | 1007.3 |
| 20260505165658 | 80 | 258 | 1.7 | 9.6 | 0.00 | 0.00 | 0.00 | 51 | 1007.3 |
| 20260505165459 | 79 | 242 | 2.6 | 9.6 | 0.00 | 0.00 | 0.00 | 51 | 1007.3 |
| 20260505165259 | 79 | 254 | 2.6 | 9.6 | 0.00 | 0.00 | 0.00 | 53 | 1007.3 |
| 20260505165157 | 79 | 252 | 3.5 | 9.6 | 0.00 | 0.00 | 0.00 | 53 | 1007.3 |
| 20260505165058 | 79 | 265 | 1.7 | 9.6 | 0.00 | 0.00 | 0.00 | 50 | 1007.3 |
| 20260505165000 | 79 | 288 | 4.3 | 9.6 | 0.00 | 0.00 | 0.00 | 51 | 1007.4 |
| 20260505164858 | 79 | 230 | 1.7 | 9.6 | 0.00 | 0.00 | 0.00 | 52 | 1007.6 |
| 20260505164758 | 79 | 222 | 2.6 | 9.6 | 0.00 | 0.00 | 0.00 | 52 | 1007.4 |
| 20260505164659 | 79 | 261 | 2.6 | 9.6 | 0.00 | 0.00 | 0.00 | 49 | 1007.4 |
| 20260505164558 | 79 | 309 | 6.1 | 9.6 | 0.00 | 0.00 | 0.00 | 52 | 1007.6 |
| 20260505164358 | 79 | 247 | 2.6 | 9.6 | 0.00 | 0.00 | 0.00 | 52 | 1007.6 |
| 20260505164257 | 79 | 225 | 1.7 | 9.6 | 0.00 | 0.00 | 0.00 | 50 | 1007.6 |
| 20260505164159 | 78 | 262 | 8.7 | 9.6 | 0.00 | 0.00 | 0.00 | 50 | 1007.6 |
| 20260505164058 | 78 | 254 | 1.7 | 7.8 | 0.00 | 0.00 | 0.00 | 53 | 1007.7 |
| 20260505163959 | 78 | 260 | 5.2 | 7.8 | 0.00 | 0.00 | 0.00 | 53 | 1007.8 |
| 20260505163900 | 78 | 250 | 2.6 | 7.8 | 0.00 | 0.00 | 0.00 | 53 | 1007.8 |
| 20260505163659 | 78 | 257 | 2.6 | 11.3 | 0.00 | 0.00 | 0.00 | 52 | 1007.8 |
| 20260505163558 | 78 | 286 | 5.2 | 11.3 | 0.00 | 0.00 | 0.00 | 52 | 1007.9 |
| 20260505163459 | 78 | 248 | 3.5 | 11.3 | 0.00 | 0.00 | 0.00 | 50 | 1008.0 |
| 20260505163358 | 78 | 269 | 6.1 | 11.3 | 0.00 | 0.00 | 0.00 | 52 | 1008.0 |
| 20260505163258 | 78 | 266 | 2.6 | 11.3 | 0.00 | 0.00 | 0.00 | 50 | 1007.9 |
| 20260505163200 | 78 | 267 | 2.6 | 11.3 | 0.00 | 0.00 | 0.00 | 51 | 1007.9 |
| 20260505163058 | 78 | 253 | 1.7 | 11.3 | 0.00 | 0.00 | 0.00 | 51 | 1007.9 |
| 20260505162959 | 78 | 242 | 3.5 | 11.3 | 0.00 | 0.00 | 0.00 | 52 | 1008.0 |
| 20260505162859 | 78 | 304 | 2.6 | 11.3 | 0.00 | 0.00 | 0.00 | 50 | 1007.9 |
| 20260505162659 | 79 | 261 | 3.5 | 7.8 | 0.00 | 0.00 | 0.00 | 50 | 1007.9 |
| 20260505162559 | 79 | 237 | 3.5 | 7.8 | 0.00 | 0.00 | 0.00 | 51 | 1008.0 |
| 20260505162459 | 79 | 235 | 3.5 | 7.8 | 0.00 | 0.00 | 0.00 | 53 | 1007.9 |
| 20260505162357 | 79 | 205 | 5.2 | 7.8 | 0.00 | 0.00 | 0.00 | 53 | 1007.9 |
| 20260505162258 | 79 | 281 | 5.2 | 7.8 | 0.00 | 0.00 | 0.00 | 53 | 1008.0 |
| 20260505162158 | 78 | 253 | 4.3 | 7.8 | 0.00 | 0.00 | 0.00 | 51 | 1008.0 |
| 20260505162057 | 79 | 243 | 4.3 | 7.8 | 0.00 | 0.00 | 0.00 | 51 | 1007.9 |
| 20260505161958 | 79 | 262 | 2.6 | 6.1 | 0.00 | 0.00 | 0.00 | 50 | 1007.9 |
| 20260505161758 | 79 | 220 | 2.6 | 6.1 | 0.00 | 0.00 | 0.00 | 52 | 1008.0 |
| 20260505161657 | 79 | 312 | 4.3 | 6.1 | 0.00 | 0.00 | 0.00 | 54 | 1008.0 |
| 20260505161558 | 79 | 230 | 5.2 | 6.1 | 0.00 | 0.00 | 0.00 | 51 | 1007.9 |
| 20260505161358 | 79 | 219 | 3.5 | 8.7 | 0.00 | 0.00 | 0.00 | 52 | 1007.9 |
| 20260505161258 | 79 | 266 | 6.1 | 8.7 | 0.00 | 0.00 | 0.00 | 52 | 1007.9 |
| 20260505161159 | 78 | 209 | 2.6 | 8.7 | 0.00 | 0.00 | 0.00 | 52 | 1007.9 |
| 20260505161057 | 78 | 216 | 2.6 | 8.7 | 0.00 | 0.00 | 0.00 | 52 | 1007.9 |
| 20260505160959 | 78 | 214 | 2.6 | 8.7 | 0.00 | 0.00 | 0.00 | 53 | 1007.9 |
| 20260505160859 | 78 | 226 | 3.5 | 8.7 | 0.00 | 0.00 | 0.00 | 52 | 1007.9 |
| 20260505160758 | 78 | 235 | 2.6 | 8.7 | 0.00 | 0.00 | 0.00 | 54 | 1007.9 |
| 20260505160558 | 78 | 268 | 7.0 | 8.7 | 0.00 | 0.00 | 0.00 | 51 | 1008.0 |
| 20260505160500 | 79 | 259 | 5.2 | 7.8 | 0.00 | 0.00 | 0.00 | 52 | 1008.0 |
| 20260505160158 | 78 | 221 | 0.9 | 7.8 | 0.00 | 0.00 | 0.00 | 53 | 1008.0 |
| 20260505153357 | 77 | 189 | 2.6 | 5.2 | 0.00 | 0.00 | 0.00 | 54 | 1007.8 |
| 20260505153258 | 77 | 248 | 2.6 | 5.2 | 0.00 | 0.00 | 0.00 | 57 | 1008.0 |
| 20260505153158 | 77 | 218 | 0.9 | 6.1 | 0.00 | 0.00 | 0.00 | 57 | 1008.0 |
| 20260505153057 | 77 | 214 | 3.5 | 7.0 | 0.00 | 0.00 | 0.00 | 56 | 1008.0 |
| 20260505152959 | 77 | 290 | 2.6 | 7.0 | 0.00 | 0.00 | 0.00 | 57 | 1008.0 |
| 20260505152857 | 77 | 217 | 2.6 | 7.0 | 0.00 | 0.00 | 0.00 | 55 | 1008.0 |
| 20260505152657 | 77 | 207 | 2.6 | 7.0 | 0.00 | 0.00 | 0.00 | 58 | 1008.1 |
| 20260505152558 | 77 | 242 | 3.5 | 7.0 | 0.00 | 0.00 | 0.00 | 55 | 1008.1 |
| 20260505152357 | 77 | 272 | 1.7 | 7.0 | 0.00 | 0.00 | 0.00 | 56 | 1008.1 |
| 20260505152257 | 77 | 263 | 2.6 | 7.0 | 0.00 | 0.00 | 0.00 | 54 | 1008.1 |
| 20260505152057 | 77 | 279 | 3.5 | 6.1 | 0.00 | 0.00 | 0.00 | 56 | 1008.1 |
| 20260505151959 | 77 | 252 | 1.7 | 6.1 | 0.00 | 0.00 | 0.00 | 57 | 1008.1 |
| 20260505151757 | 76 | 200 | 1.7 | 6.1 | 0.00 | 0.00 | 0.00 | 57 | 1008.1 |
| 20260505151659 | 76 | 200 | 2.6 | 6.1 | 0.00 | 0.00 | 0.00 | 57 | 1008.1 |
| 20260505151558 | 76 | 246 | 1.7 | 6.1 | 0.00 | 0.00 | 0.00 | 57 | 1008.0 |
| 20260505151457 | 76 | 296 | 1.7 | 7.0 | 0.00 | 0.00 | 0.00 | 57 | 1008.1 |
| 20260505151356 | 76 | 291 | 1.7 | 7.0 | 0.00 | 0.00 | 0.00 | 59 | 1008.1 |
| 20260505151258 | 76 | 214 | 2.6 | 7.0 | 0.00 | 0.00 | 0.00 | 59 | 1008.1 |
| 20260505151057 | 76 | 240 | 0.9 | 4.3 | 0.00 | 0.00 | 0.00 | 62 | 1008.1 |
| 20260505151000 | 76 | 240 | 1.7 | 4.3 | 0.00 | 0.00 | 0.00 | 58 | 1008.1 |
| 20260505150759 | 76 | 194 | 0.9 | 4.3 | 0.00 | 0.00 | 0.00 | 60 | 1008.2 |
| 20260505150658 | 76 | 187 | 2.6 | 4.3 | 0.00 | 0.00 | 0.00 | 60 | 1008.2 |
| 20260505150458 | 76 | 229 | 1.7 | 4.3 | 0.00 | 0.00 | 0.00 | 60 | 1008.1 |
| 20260505150359 | 75 | 192 | 2.6 | 4.3 | 0.00 | 0.00 | 0.00 | 62 | 1008.2 |
| 20260505150258 | 75 | 198 | 3.5 | 4.3 | 0.00 | 0.00 | 0.00 | 60 | 1008.1 |
| 20260505140558 | 71 | 285 | 2.6 | 4.3 | 0.00 | 0.00 | 0.00 | 67 | 1008.9 |
| 20260505140459 | 71 | 169 | 1.7 | 4.3 | 0.00 | 0.00 | 0.00 | 67 | 1008.9 |
| 20260505140357 | 70 | 215 | 0.0 | 4.3 | 0.00 | 0.00 | 0.00 | 69 | 1009.0 |
| 20260505140258 | 70 | 215 | 1.7 | 4.3 | 0.00 | 0.00 | 0.00 | 67 | 1008.9 |
| 20260505140158 | 70 | 263 | 0.9 | 4.3 | 0.00 | 0.00 | 0.00 | 66 | 1008.9 |
| 20260505130258 | 65 | 140 | 0.9 | 3.5 | 0.00 | 0.00 | 0.00 | 76 | 1009.6 |
| 20260505130200 | 65 | 199 | 0.0 | 2.6 | 0.00 | 0.00 | 0.00 | 75 | 1009.6 |
| 20260505124859 | 64 | 161 | 0.9 | 5.2 | 0.00 | 0.00 | 0.00 | 74 | 1009.6 |
| 20260505124757 | 64 | 161 | 0.9 | 5.2 | 0.00 | 0.00 | 0.00 | 75 | 1009.6 |
| 20260505124657 | 64 | 161 | 1.7 | 5.2 | 0.00 | 0.00 | 0.00 | 76 | 1009.6 |
| 20260505124558 | 64 | 161 | 1.7 | 5.2 | 0.00 | 0.00 | 0.00 | 76 | 1009.6 |
| 20260505124458 | 64 | 161 | 0.9 | 5.2 | 0.00 | 0.00 | 0.00 | 75 | 1009.5 |
| 20260505124357 | 64 | 167 | 5.2 | 5.2 | 0.00 | 0.00 | 0.00 | 75 | 1009.5 |
| 20260505124257 | 64 | 189 | 2.6 | 3.5 | 0.00 | 0.00 | 0.00 | 75 | 1009.5 |
| 20260505124158 | 64 | 196 | 1.7 | 3.5 | 0.00 | 0.00 | 0.00 | 76 | 1009.5 |
| 20260505124058 | 64 | 161 | 3.5 | 3.5 | 0.00 | 0.00 | 0.00 | 79 | 1009.6 |
| 20260505123958 | 64 | 171 | 0.9 | 1.7 | 0.00 | 0.00 | 0.00 | 79 | 1009.5 |
| 20260505123857 | 64 | 171 | 0.0 | 1.7 | 0.00 | 0.00 | 0.00 | 79 | 1009.5 |
| 20260505123759 | 64 | 171 | 0.9 | 1.7 | 0.00 | 0.00 | 0.00 | 79 | 1009.5 |
| 20260505123657 | 63 | 171 | 0.0 | 1.7 | 0.00 | 0.00 | 0.00 | 78 | 1009.5 |
| 20260505123558 | 63 | 171 | 0.9 | 1.7 | 0.00 | 0.00 | 0.00 | 79 | 1009.5 |
| 20260505123500 | 63 | 171 | 0.9 | 2.6 | 0.00 | 0.00 | 0.00 | 79 | 1009.5 |
| 20260505123157 | 62 | 171 | 0.0 | 3.5 | 0.00 | 0.00 | 0.00 | 81 | 1009.4 |
| 20260505123058 | 62 | 171 | 0.0 | 3.5 | 0.00 | 0.00 | 0.00 | 81 | 1009.4 |
| 20260505122959 | 62 | 171 | 0.9 | 3.5 | 0.00 | 0.00 | 0.00 | 82 | 1009.5 |
| 20260505122858 | 62 | 171 | 0.9 | 3.5 | 0.00 | 0.00 | 0.00 | 81 | 1009.5 |
| 20260505122657 | 62 | 171 | 0.0 | 3.5 | 0.00 | 0.00 | 0.00 | 80 | 1009.5 |
| 20260505122557 | 61 | 171 | 3.5 | 3.5 | 0.00 | 0.00 | 0.00 | 82 | 1009.5 |
| 20260505122458 | 61 | 279 | 0.9 | 3.5 | 0.00 | 0.00 | 0.00 | 82 | 1009.5 |
| 20260505122258 | 61 | 177 | 0.0 | 3.5 | 0.00 | 0.00 | 0.00 | 82 | 1009.4 |
| 20260505122157 | 61 | 177 | 0.9 | 3.5 | 0.00 | 0.00 | 0.00 | 82 | 1009.4 |
| 20260505122058 | 61 | 177 | 1.7 | 3.5 | 0.00 | 0.00 | 0.00 | 82 | 1009.6 |
| 20260505121959 | 60 | 177 | 2.6 | 3.5 | 0.00 | 0.00 | 0.00 | 84 | 1009.6 |
| 20260505121857 | 60 | 178 | 0.9 | 3.5 | 0.00 | 0.00 | 0.00 | 83 | 1009.5 |
| 20260505121658 | 59 | 209 | 1.7 | 3.5 | 0.00 | 0.00 | 0.00 | 85 | 1009.4 |
| 20260505121601 | 59 | 209 | 1.7 | 3.5 | 0.00 | 0.00 | 0.00 | 86 | 1009.4 |
| 20260505121357 | 59 | 143 | 2.6 | 2.6 | 0.00 | 0.00 | 0.00 | 87 | 1009.5 |
| 20260505121057 | 58 | 142 | 0.9 | 2.6 | 0.00 | 0.00 | 0.00 | 87 | 1009.4 |
| 20260505120958 | 58 | 142 | 0.9 | 2.6 | 0.00 | 0.00 | 0.00 | 88 | 1009.4 |
| 20260505120857 | 58 | 141 | 0.0 | 2.6 | 0.00 | 0.00 | 0.00 | 88 | 1009.4 |
| 20260505120658 | 58 | 141 | 0.9 | 2.6 | 0.00 | 0.00 | 0.00 | 88 | 1009.4 |
| 20260505120458 | 57 | 140 | 0.0 | 1.7 | 0.00 | 0.00 | 0.00 | 90 | 1009.4 |
| 20260505120357 | 57 | 140 | 0.0 | 0.9 | 0.00 | 0.00 | 0.00 | 90 | 1009.4 |
| 20260505120259 | 57 | 140 | 0.0 | 0.9 | 0.00 | 0.00 | 0.00 | 90 | 1009.4 |
| 20260505120157 | 57 | 140 | 0.0 | 0.9 | 0.00 | 0.00 | 0.00 | 91 | 1009.4 |
| 20260505120057 | 57 | 140 | 0.0 | 0.9 | 0.00 | 0.00 | 0.00 | 90 | 1009.4 |
| 20260505115959 | 56 | 140 | 0.0 | 0.9 | 0.00 | 0.00 | 0.00 | 91 | 1009.4 |
| 20260505115758 | 56 | 140 | 0.0 | 0.9 | 0.00 | 0.00 | 0.00 | 92 | 1009.4 |
| 20260505115657 | 56 | 140 | 0.0 | 0.9 | 0.00 | 0.00 | 0.00 | 91 | 1009.4 |
| 20260505115556 | 56 | 140 | 0.9 | 0.9 | 0.00 | 0.00 | 0.00 | 91 | 1009.3 |
| 20260505115458 | 56 | 140 | 0.0 | 0.0 | 0.00 | 0.00 | 0.00 | 91 | 1009.3 |
| 20260505115359 | 56 | 140 | 0.0 | 0.0 | 0.00 | 0.00 | 0.00 | 92 | 1009.3 |
| 20260505115156 | 56 | 140 | 0.0 | 0.0 | 0.00 | 0.00 | 0.00 | 92 | 1009.3 |
| 20260505114858 | 56 | 140 | 0.0 | 0.0 | 0.00 | 0.00 | 0.00 | 93 | 1009.3 |
| 20260505114757 | 56 | 140 | 0.0 | 0.0 | 0.00 | 0.00 | 0.00 | 93 | 1009.3 |
| 20260505114656 | 56 | 140 | 0.0 | 0.0 | 0.00 | 0.00 | 0.00 | 93 | 1009.3 |
| 20260505114557 | 55 | 140 | 0.0 | 0.9 | 0.00 | 0.00 | 0.00 | 93 | 1009.3 |
| 20260505114459 | 55 | 140 | 0.0 | 0.9 | 0.00 | 0.00 | 0.00 | 93 | 1009.3 |
| 20260505114357 | 55 | 140 | 0.0 | 0.9 | 0.00 | 0.00 | 0.00 | 93 | 1009.2 |
| 20260505114256 | 55 | 140 | 0.0 | 0.9 | 0.00 | 0.00 | 0.00 | 93 | 1009.2 |
| 20260505114157 | 55 | 140 | 0.0 | 0.9 | 0.00 | 0.00 | 0.00 | 93 | 1009.2 |
| 20260505113959 | 55 | 140 | 0.0 | 0.9 | 0.00 | 0.00 | 0.00 | 93 | 1009.1 |
| 20260505113657 | 55 | 140 | 0.0 | 0.9 | 0.00 | 0.00 | 0.00 | 94 | 1009.1 |
| 20260505113557 | 55 | 140 | 0.0 | 0.0 | 0.00 | 0.00 | 0.00 | 94 | 1009.1 |
| 20260505113459 | 55 | 140 | 0.0 | 0.0 | 0.00 | 0.00 | 0.00 | 94 | 1009.1 |
| 20260505113356 | 54 | 140 | 0.0 | 0.0 | 0.00 | 0.00 | 0.00 | 94 | 1009.0 |
| 20260505113258 | 54 | 140 | 0.0 | 0.9 | 0.00 | 0.00 | 0.00 | 94 | 1009.1 |
| 20260505113156 | 54 | 140 | 0.0 | 0.9 | 0.00 | 0.00 | 0.00 | 94 | 1009.1 |
| 20260505113058 | 54 | 140 | 0.0 | 0.9 | 0.00 | 0.00 | 0.00 | 94 | 1009.0 |
| 20260505112856 | 54 | 140 | 0.0 | 0.9 | 0.00 | 0.00 | 0.00 | 94 | 1009.0 |
| 20260505112757 | 54 | 140 | 0.0 | 0.9 | 0.00 | 0.00 | 0.00 | 94 | 1009.1 |
| 20260505112656 | 54 | 140 | 0.0 | 0.9 | 0.00 | 0.00 | 0.00 | 94 | 1009.1 |
| 20260505112556 | 54 | 140 | 0.0 | 0.9 | 0.00 | 0.00 | 0.00 | 94 | 1009.0 |
| 20260505112457 | 54 | 140 | 0.0 | 0.9 | 0.00 | 0.00 | 0.00 | 94 | 1009.0 |
| 20260505112257 | 53 | 140 | 0.0 | 0.9 | 0.00 | 0.00 | 0.00 | 94 | 1009.0 |
| 20260505112156 | 53 | 140 | 0.0 | 0.9 | 0.00 | 0.00 | 0.00 | 94 | 1009.0 |
| 20260505112057 | 53 | 140 | 0.0 | 0.9 | 0.00 | 0.00 | 0.00 | 94 | 1009.0 |
| 20260505111958 | 53 | 140 | 0.0 | 0.9 | 0.00 | 0.00 | 0.00 | 94 | 1009.0 |
| 20260505111857 | 53 | 140 | 0.0 | 0.9 | 0.00 | 0.00 | 0.00 | 94 | 1009.0 |
| 20260505111658 | 52 | 140 | 0.0 | 0.9 | 0.00 | 0.00 | 0.00 | 94 | 1008.9 |
| 20260505111557 | 52 | 140 | 0.0 | 0.9 | 0.00 | 0.00 | 0.00 | 94 | 1009.0 |
| 20260505111458 | 52 | 140 | 0.0 | 0.9 | 0.00 | 0.00 | 0.00 | 94 | 1009.0 |
| 20260505111356 | 52 | 140 | 0.0 | 0.9 | 0.00 | 0.00 | 0.00 | 94 | 1009.0 |
| 20260505111256 | 52 | 140 | 0.0 | 0.9 | 0.00 | 0.00 | 0.00 | 94 | 1009.0 |
| 20260505111157 | 51 | 140 | 0.0 | 0.9 | 0.00 | 0.00 | 0.00 | 94 | 1009.0 |
| 20260505110959 | 51 | 140 | 0.0 | 0.9 | 0.00 | 0.00 | 0.00 | 94 | 1009.0 |
| 20260505110756 | 51 | 140 | 0.0 | 1.7 | 0.00 | 0.00 | 0.00 | 94 | 1008.9 |
| 20260505110700 | 51 | 140 | 0.0 | 1.7 | 0.00 | 0.00 | 0.00 | 94 | 1008.9 |
| 20260505110556 | 51 | 140 | 0.0 | 1.7 | 0.00 | 0.00 | 0.00 | 94 | 1008.9 |
| 20260505110357 | 51 | 140 | 0.0 | 2.6 | 0.00 | 0.00 | 0.00 | 94 | 1008.9 |
| 20260505110257 | 51 | 140 | 0.0 | 2.6 | 0.00 | 0.00 | 0.00 | 94 | 1008.8 |
| 20260505110157 | 51 | 140 | 0.0 | 2.6 | 0.00 | 0.00 | 0.00 | 94 | 1008.9 |
| 20260505101958 | 49 | 140 | 0.0 | 1.7 | 0.00 | 0.00 | 0.00 | 94 | 1008.7 |
| 20260505101858 | 49 | 140 | 0.0 | 1.7 | 0.00 | 0.00 | 0.00 | 94 | 1008.6 |
| 20260505101758 | 49 | 140 | 0.9 | 1.7 | 0.00 | 0.00 | 0.00 | 94 | 1008.6 |
| 20260505101658 | 49 | 140 | 0.0 | 1.7 | 0.00 | 0.00 | 0.00 | 94 | 1008.6 |
| 20260505101556 | 49 | 140 | 0.0 | 1.7 | 0.00 | 0.00 | 0.00 | 94 | 1008.6 |
| 20260505101459 | 49 | 140 | 1.7 | 1.7 | 0.00 | 0.00 | 0.00 | 94 | 1008.6 |
| 20260505101356 | 49 | 140 | 0.9 | 0.9 | 0.00 | 0.00 | 0.00 | 94 | 1008.6 |
| 20260505101258 | 49 | 140 | 0.9 | 0.9 | 0.00 | 0.00 | 0.00 | 94 | 1008.6 |
| 20260505101159 | 49 | 140 | 0.0 | 0.9 | 0.00 | 0.00 | 0.00 | 94 | 1008.5 |
| 20260505101056 | 49 | 140 | 0.0 | 2.6 | 0.00 | 0.00 | 0.00 | 94 | 1008.5 |
| 20260505100958 | 49 | 140 | 0.0 | 2.6 | 0.00 | 0.00 | 0.00 | 94 | 1008.5 |
| 20260505100857 | 49 | 140 | 0.0 | 2.6 | 0.00 | 0.00 | 0.00 | 94 | 1008.5 |
| 20260505100757 | 49 | 140 | 0.0 | 2.6 | 0.00 | 0.00 | 0.00 | 94 | 1008.5 |
| 20260505100557 | 49 | 140 | 0.0 | 2.6 | 0.00 | 0.00 | 0.00 | 94 | 1008.4 |
| 20260505100458 | 49 | 140 | 0.0 | 2.6 | 0.00 | 0.00 | 0.00 | 94 | 1008.5 |
| 20260505100358 | 49 | 140 | 0.0 | 2.6 | 0.00 | 0.00 | 0.00 | 94 | 1008.5 |
| 20260505095958 | 49 | 140 | 0.0 | 0.0 | 0.00 | 0.00 | 0.00 | 94 | 1008.5 |
| 20260505095858 | 49 | 140 | 0.0 | 0.0 | 0.00 | 0.00 | 0.00 | 94 | 1008.5 |
| 20260505095757 | 49 | 140 | 0.0 | 0.0 | 0.00 | 0.00 | 0.00 | 94 | 1008.4 |
| 20260505095559 | 49 | 140 | 0.0 | 0.0 | 0.00 | 0.00 | 0.00 | 94 | 1008.4 |
| 20260505095458 | 49 | 140 | 0.0 | 0.0 | 0.00 | 0.00 | 0.00 | 94 | 1008.3 |
| 20260505095401 | 49 | 140 | 0.0 | 0.0 | 0.00 | 0.00 | 0.00 | 94 | 1008.4 |
| 20260505095259 | 49 | 140 | 0.0 | 1.7 | 0.00 | 0.00 | 0.00 | 94 | 1008.3 |
| 20260505095159 | 49 | 140 | 0.0 | 1.7 | 0.00 | 0.00 | 0.00 | 94 | 1008.3 |
| 20260505095058 | 49 | 140 | 0.0 | 1.7 | 0.00 | 0.00 | 0.00 | 94 | 1008.3 |
| 20260505095000 | 49 | 140 | 0.0 | 1.7 | 0.00 | 0.00 | 0.00 | 94 | 1008.3 |
| 20260505094858 | 49 | 140 | 0.0 | 1.7 | 0.00 | 0.00 | 0.00 | 94 | 1008.2 |
| 20260505094758 | 49 | 140 | 0.0 | 1.7 | 0.00 | 0.00 | 0.00 | 94 | 1008.2 |
| 20260505094659 | 49 | 140 | 0.0 | 1.7 | 0.00 | 0.00 | 0.00 | 94 | 1008.2 |
| 20260505094558 | 49 | 140 | 0.0 | 1.7 | 0.00 | 0.00 | 0.00 | 94 | 1008.1 |
| 20260505094501 | 49 | 140 | 0.0 | 1.7 | 0.00 | 0.00 | 0.00 | 94 | 1008.1 |
| 20260505094258 | 49 | 140 | 0.9 | 1.7 | 0.00 | 0.00 | 0.00 | 94 | 1008.1 |
| 20260505094158 | 49 | 140 | 0.0 | 1.7 | 0.00 | 0.00 | 0.00 | 94 | 1008.0 |
| 20260505094058 | 49 | 140 | 0.0 | 1.7 | 0.00 | 0.00 | 0.00 | 94 | 1008.0 |
| 20260505094001 | 49 | 140 | 0.0 | 1.7 | 0.00 | 0.00 | 0.00 | 94 | 1008.1 |
| 20260505093659 | 49 | 140 | 0.0 | 1.7 | 0.00 | 0.00 | 0.00 | 94 | 1008.1 |
| 20260505093558 | 49 | 140 | 0.9 | 1.7 | 0.00 | 0.00 | 0.00 | 94 | 1008.1 |
| 20260505093500 | 49 | 140 | 0.9 | 1.7 | 0.00 | 0.00 | 0.00 | 94 | 1008.1 |
| 20260505093257 | 49 | 140 | 0.9 | 1.7 | 0.00 | 0.00 | 0.00 | 94 | 1008.1 |
| 20260505092958 | 50 | 140 | 0.0 | 1.7 | 0.00 | 0.00 | 0.00 | 94 | 1008.1 |
| 20260505092857 | 50 | 140 | 0.9 | 1.7 | 0.00 | 0.00 | 0.00 | 94 | 1008.1 |
| 20260505092758 | 50 | 140 | 0.9 | 1.7 | 0.00 | 0.00 | 0.00 | 94 | 1008.1 |
| 20260505092658 | 50 | 140 | 0.0 | 0.0 | 0.00 | 0.00 | 0.00 | 94 | 1008.0 |
| 20260505092358 | 50 | 140 | 0.0 | 1.7 | 0.00 | 0.00 | 0.00 | 93 | 1008.1 |
| 20260505092257 | 50 | 140 | 0.0 | 1.7 | 0.00 | 0.00 | 0.00 | 94 | 1008.0 |
| 20260505092158 | 50 | 140 | 0.0 | 1.7 | 0.00 | 0.00 | 0.00 | 94 | 1008.1 |
| 20260505092000 | 50 | 140 | 0.0 | 1.7 | 0.00 | 0.00 | 0.00 | 94 | 1008.1 |
| 20260505091858 | 50 | 140 | 0.0 | 1.7 | 0.00 | 0.00 | 0.00 | 94 | 1008.0 |
| 20260505091757 | 50 | 140 | 0.0 | 1.7 | 0.00 | 0.00 | 0.00 | 93 | 1008.0 |
| 20260505091657 | 50 | 140 | 0.0 | 1.7 | 0.00 | 0.00 | 0.00 | 93 | 1008.0 |
| 20260505091559 | 50 | 140 | 1.7 | 1.7 | 0.00 | 0.00 | 0.00 | 93 | 1008.0 |
| 20260505091459 | 50 | 140 | 0.0 | 1.7 | 0.00 | 0.00 | 0.00 | 93 | 1008.0 |
| 20260505091357 | 50 | 140 | 0.0 | 1.7 | 0.00 | 0.00 | 0.00 | 93 | 1008.0 |
| 20260505091257 | 50 | 140 | 0.9 | 1.7 | 0.00 | 0.00 | 0.00 | 93 | 1008.0 |
| 20260505091158 | 50 | 140 | 0.0 | 1.7 | 0.00 | 0.00 | 0.00 | 93 | 1008.0 |
| 20260505091058 | 50 | 140 | 0.9 | 1.7 | 0.00 | 0.00 | 0.00 | 93 | 1008.0 |
| 20260505090959 | 50 | 140 | 0.0 | 1.7 | 0.00 | 0.00 | 0.00 | 93 | 1008.0 |
| 20260505090758 | 50 | 140 | 0.9 | 1.7 | 0.00 | 0.00 | 0.00 | 93 | 1008.0 |
| 20260505090657 | 50 | 140 | 0.9 | 1.7 | 0.00 | 0.00 | 0.00 | 93 | 1008.0 |
| 20260505090559 | 50 | 140 | 0.0 | 1.7 | 0.00 | 0.00 | 0.00 | 93 | 1008.1 |
| 20260505090501 | 50 | 140 | 0.0 | 1.7 | 0.00 | 0.00 | 0.00 | 93 | 1008.1 |
| 20260505090357 | 50 | 140 | 0.9 | 1.7 | 0.00 | 0.00 | 0.00 | 93 | 1008.0 |
| 20260505090258 | 50 | 140 | 0.9 | 1.7 | 0.00 | 0.00 | 0.00 | 93 | 1008.1 |
| 20260505090057 | 50 | 140 | 0.0 | 1.7 | 0.00 | 0.00 | 0.00 | 93 | 1008.1 |
| 20260505085757 | 50 | 140 | 0.0 | 1.7 | 0.00 | 0.00 | 0.00 | 93 | 1008.1 |
| 20260505085656 | 50 | 140 | 0.0 | 1.7 | 0.00 | 0.00 | 0.00 | 93 | 1008.0 |
| 20260505085557 | 50 | 140 | 0.0 | 1.7 | 0.00 | 0.00 | 0.00 | 93 | 1008.1 |
| 20260505085357 | 50 | 140 | 0.0 | 1.7 | 0.00 | 0.00 | 0.00 | 93 | 1008.1 |
| 20260505085257 | 50 | 140 | 0.0 | 1.7 | 0.00 | 0.00 | 0.00 | 93 | 1008.1 |
| 20260505085157 | 50 | 140 | 0.0 | 1.7 | 0.00 | 0.00 | 0.00 | 93 | 1008.0 |
| 20260505085056 | 50 | 140 | 0.9 | 1.7 | 0.00 | 0.00 | 0.00 | 93 | 1008.1 |
| 20260505084858 | 50 | 140 | 0.9 | 1.7 | 0.00 | 0.00 | 0.00 | 93 | 1008.1 |
| 20260505084757 | 50 | 140 | 0.0 | 1.7 | 0.00 | 0.00 | 0.00 | 93 | 1008.1 |
| 20260505084556 | 50 | 140 | 0.0 | 1.7 | 0.00 | 0.00 | 0.00 | 93 | 1008.1 |
| 20260505084459 | 50 | 140 | 0.0 | 1.7 | 0.00 | 0.00 | 0.00 | 93 | 1008.1 |
| 20260505084357 | 50 | 140 | 0.0 | 1.7 | 0.00 | 0.00 | 0.00 | 93 | 1008.1 |
| 20260505084258 | 50 | 140 | 0.9 | 1.7 | 0.00 | 0.00 | 0.00 | 93 | 1008.1 |
| 20260505084157 | 50 | 140 | 0.0 | 1.7 | 0.00 | 0.00 | 0.00 | 93 | 1008.1 |
| 20260505084056 | 51 | 140 | 0.9 | 1.7 | 0.00 | 0.00 | 0.00 | 93 | 1008.0 |
| 20260505083958 | 51 | 140 | 0.0 | 1.7 | 0.00 | 0.00 | 0.00 | 92 | 1008.0 |
| 20260505083858 | 51 | 140 | 0.0 | 1.7 | 0.00 | 0.00 | 0.00 | 92 | 1008.0 |
| 20260505083558 | 51 | 140 | 0.0 | 1.7 | 0.00 | 0.00 | 0.00 | 93 | 1008.1 |
| 20260505083458 | 51 | 140 | 0.0 | 1.7 | 0.00 | 0.00 | 0.00 | 93 | 1008.0 |
| 20260505083358 | 51 | 140 | 0.9 | 1.7 | 0.00 | 0.00 | 0.00 | 93 | 1008.1 |
| 20260505083257 | 51 | 140 | 0.0 | 1.7 | 0.00 | 0.00 | 0.00 | 93 | 1008.1 |
| 20260505083157 | 51 | 140 | 0.0 | 1.7 | 0.00 | 0.00 | 0.00 | 93 | 1008.1 |
| 20260505083057 | 51 | 140 | 0.0 | 1.7 | 0.00 | 0.00 | 0.00 | 93 | 1008.0 |
| 20260505082959 | 51 | 140 | 0.0 | 1.7 | 0.00 | 0.00 | 0.00 | 92 | 1008.1 |
| 20260505082857 | 51 | 140 | 0.9 | 1.7 | 0.00 | 0.00 | 0.00 | 92 | 1008.0 |
| 20260505082757 | 51 | 140 | 0.9 | 1.7 | 0.00 | 0.00 | 0.00 | 92 | 1008.1 |
| 20260505082657 | 51 | 140 | 0.9 | 1.7 | 0.00 | 0.00 | 0.00 | 92 | 1008.0 |
| 20260505082459 | 51 | 140 | 0.0 | 1.7 | 0.00 | 0.00 | 0.00 | 92 | 1008.1 |
| 20260505082357 | 51 | 140 | 0.9 | 1.7 | 0.00 | 0.00 | 0.00 | 92 | 1008.1 |
| 20260505082257 | 51 | 140 | 0.0 | 1.7 | 0.00 | 0.00 | 0.00 | 92 | 1008.1 |
| 20260505082157 | 51 | 140 | 0.0 | 1.7 | 0.00 | 0.00 | 0.00 | 92 | 1008.1 |
| 20260505082056 | 51 | 140 | 0.0 | 1.7 | 0.00 | 0.00 | 0.00 | 92 | 1008.0 |
| 20260505081858 | 51 | 140 | 0.9 | 1.7 | 0.00 | 0.00 | 0.00 | 92 | 1008.1 |
| 20260505081758 | 51 | 140 | 0.9 | 1.7 | 0.00 | 0.00 | 0.00 | 92 | 1008.1 |
| 20260505081656 | 51 | 140 | 0.0 | 1.7 | 0.00 | 0.00 | 0.00 | 92 | 1008.0 |
| 20260505081557 | 51 | 140 | 0.0 | 1.7 | 0.00 | 0.00 | 0.00 | 92 | 1008.0 |
| 20260505081457 | 51 | 140 | 0.0 | 1.7 | 0.00 | 0.00 | 0.00 | 92 | 1008.0 |
| 20260505081357 | 51 | 140 | 0.9 | 1.7 | 0.00 | 0.00 | 0.00 | 92 | 1008.0 |
| 20260505081257 | 51 | 140 | 0.0 | 1.7 | 0.00 | 0.00 | 0.00 | 92 | 1008.0 |
| 20260505081158 | 51 | 140 | 0.0 | 1.7 | 0.00 | 0.00 | 0.00 | 91 | 1007.9 |
| 20260505080958 | 51 | 140 | 0.0 | 2.6 | 0.00 | 0.00 | 0.00 | 91 | 1007.9 |
| 20260505080858 | 51 | 140 | 0.0 | 2.6 | 0.00 | 0.00 | 0.00 | 91 | 1007.9 |
| 20260505080757 | 51 | 140 | 0.0 | 2.6 | 0.00 | 0.00 | 0.00 | 91 | 1007.9 |
| 20260505080657 | 51 | 140 | 1.7 | 2.6 | 0.00 | 0.00 | 0.00 | 91 | 1007.9 |
| 20260505080557 | 52 | 140 | 0.0 | 2.6 | 0.00 | 0.00 | 0.00 | 91 | 1007.9 |
| 20260505080459 | 52 | 140 | 0.0 | 2.6 | 0.00 | 0.00 | 0.00 | 91 | 1007.9 |
| 20260505080357 | 52 | 140 | 0.0 | 2.6 | 0.00 | 0.00 | 0.00 | 91 | 1007.8 |
| 20260505080157 | 52 | 140 | 0.0 | 2.6 | 0.00 | 0.00 | 0.00 | 91 | 1007.9 |
| 20260505080058 | 52 | 140 | 1.7 | 2.6 | 0.00 | 0.00 | 0.00 | 91 | 1007.8 |
| 20260505080001 | 52 | 140 | 0.0 | 1.7 | 0.00 | 0.00 | 0.00 | 91 | 1007.8 |
| 20260505075857 | 52 | 140 | 0.0 | 1.7 | 0.00 | 0.00 | 0.00 | 91 | 1007.9 |
| 20260505075656 | 52 | 140 | 0.9 | 2.6 | 0.00 | 0.00 | 0.00 | 91 | 1007.9 |
| 20260505075557 | 52 | 140 | 0.9 | 2.6 | 0.00 | 0.00 | 0.00 | 91 | 1007.8 |
| 20260505075458 | 52 | 140 | 0.0 | 2.6 | 0.00 | 0.00 | 0.00 | 91 | 1007.8 |
| 20260505075358 | 52 | 140 | 0.0 | 2.6 | 0.00 | 0.00 | 0.00 | 91 | 1007.8 |
| 20260505075258 | 52 | 140 | 1.7 | 2.6 | 0.00 | 0.00 | 0.00 | 91 | 1007.8 |
| 20260505075158 | 52 | 140 | 1.7 | 2.6 | 0.00 | 0.00 | 0.00 | 91 | 1007.8 |
| 20260505075058 | 52 | 140 | 0.9 | 2.6 | 0.00 | 0.00 | 0.00 | 91 | 1007.8 |
| 20260505074857 | 52 | 140 | 0.9 | 2.6 | 0.00 | 0.00 | 0.00 | 91 | 1007.7 |
| 20260505074757 | 52 | 140 | 0.0 | 2.6 | 0.00 | 0.00 | 0.00 | 91 | 1007.7 |
| 20260505074657 | 52 | 140 | 0.0 | 0.0 | 0.00 | 0.00 | 0.00 | 91 | 1007.8 |
| 20260505074556 | 52 | 140 | 0.0 | 0.0 | 0.00 | 0.00 | 0.00 | 91 | 1007.8 |
| 20260505074357 | 52 | 140 | 0.0 | 0.0 | 0.00 | 0.00 | 0.00 | 91 | 1007.8 |
| 20260505074257 | 52 | 140 | 0.0 | 0.0 | 0.00 | 0.00 | 0.00 | 91 | 1007.8 |
| 20260505074157 | 52 | 140 | 0.0 | 0.0 | 0.00 | 0.00 | 0.00 | 91 | 1007.8 |
| 20260505074057 | 53 | 140 | 0.0 | 0.0 | 0.00 | 0.00 | 0.00 | 91 | 1007.8 |
| 20260505073957 | 53 | 141 | 0.0 | 0.0 | 0.00 | 0.00 | 0.00 | 91 | 1007.8 |
| 20260505073857 | 53 | 141 | 0.0 | 0.0 | 0.00 | 0.00 | 0.00 | 91 | 1007.6 |
| 20260505073757 | 53 | 141 | 0.0 | 0.0 | 0.00 | 0.00 | 0.00 | 91 | 1007.6 |
| 20260505073656 | 53 | 141 | 0.0 | 0.0 | 0.00 | 0.00 | 0.00 | 91 | 1007.7 |
| 20260505073556 | 53 | 141 | 0.0 | 0.0 | 0.00 | 0.00 | 0.00 | 91 | 1007.7 |
| 20260505073357 | 53 | 141 | 0.0 | 0.0 | 0.00 | 0.00 | 0.00 | 91 | 1007.6 |
| 20260505073257 | 53 | 141 | 0.0 | 0.0 | 0.00 | 0.00 | 0.00 | 91 | 1007.6 |
| 20260505073158 | 53 | 141 | 0.0 | 0.0 | 0.00 | 0.00 | 0.00 | 90 | 1007.6 |
| 20260505073059 | 53 | 141 | 0.0 | 0.0 | 0.00 | 0.00 | 0.00 | 90 | 1007.7 |
| 20260505072959 | 53 | 141 | 0.0 | 0.0 | 0.00 | 0.00 | 0.00 | 90 | 1007.7 |
| 20260505072857 | 53 | 141 | 0.0 | 0.0 | 0.00 | 0.00 | 0.00 | 90 | 1007.5 |
| 20260505072757 | 53 | 141 | 0.0 | 0.0 | 0.00 | 0.00 | 0.00 | 90 | 1007.5 |
| 20260505072657 | 53 | 141 | 0.0 | 0.0 | 0.00 | 0.00 | 0.00 | 90 | 1007.6 |
| 20260505072556 | 53 | 141 | 0.0 | 0.0 | 0.00 | 0.00 | 0.00 | 90 | 1007.6 |
| 20260505072458 | 53 | 141 | 0.0 | 0.0 | 0.00 | 0.00 | 0.00 | 90 | 1007.6 |
| 20260505072357 | 53 | 141 | 0.0 | 0.0 | 0.00 | 0.00 | 0.00 | 90 | 1007.6 |
| 20260505072156 | 53 | 141 | 0.0 | 0.0 | 0.00 | 0.00 | 0.00 | 90 | 1007.6 |
| 20260505072057 | 53 | 141 | 0.0 | 0.0 | 0.00 | 0.00 | 0.00 | 90 | 1007.6 |
| 20260505072000 | 53 | 141 | 0.0 | 0.0 | 0.00 | 0.00 | 0.00 | 90 | 1007.6 |
| 20260505071857 | 53 | 141 | 0.0 | 0.0 | 0.00 | 0.00 | 0.00 | 90 | 1007.6 |
| 20260505071657 | 53 | 141 | 0.0 | 0.0 | 0.00 | 0.00 | 0.00 | 90 | 1007.6 |
| 20260505071559 | 53 | 141 | 0.0 | 0.0 | 0.00 | 0.00 | 0.00 | 90 | 1007.6 |
| 20260505071458 | 54 | 141 | 0.0 | 0.0 | 0.00 | 0.00 | 0.00 | 90 | 1007.5 |
| 20260505071357 | 54 | 141 | 0.0 | 0.0 | 0.00 | 0.00 | 0.00 | 90 | 1007.5 |
| 20260505071057 | 54 | 141 | 0.0 | 0.0 | 0.00 | 0.00 | 0.00 | 89 | 1007.6 |
| 20260505070856 | 54 | 141 | 0.0 | 0.0 | 0.00 | 0.00 | 0.00 | 89 | 1007.6 |
| 20260505070757 | 54 | 141 | 0.0 | 0.0 | 0.00 | 0.00 | 0.00 | 89 | 1007.6 |
| 20260505070657 | 54 | 141 | 0.0 | 0.0 | 0.00 | 0.00 | 0.00 | 89 | 1007.6 |
| 20260505070458 | 54 | 141 | 0.0 | 0.0 | 0.00 | 0.00 | 0.00 | 89 | 1007.6 |
| 20260505070357 | 54 | 141 | 0.0 | 0.0 | 0.00 | 0.00 | 0.00 | 89 | 1007.6 |
| 20260505070258 | 54 | 141 | 0.0 | 0.0 | 0.00 | 0.00 | 0.00 | 89 | 1007.6 |
| 20260505070157 | 54 | 141 | 0.0 | 0.0 | 0.00 | 0.00 | 0.00 | 89 | 1007.6 |
| 20260505070058 | 54 | 141 | 0.0 | 0.0 | 0.00 | 0.00 | 0.00 | 89 | 1007.6 |
| 20260505065957 | 54 | 141 | 0.0 | 0.0 | 0.00 | 0.00 | 0.00 | 89 | 1007.6 |
| 20260505065858 | 54 | 141 | 0.0 | 0.0 | 0.00 | 0.00 | 0.00 | 89 | 1007.6 |
| 20260505065757 | 54 | 141 | 0.0 | 0.0 | 0.00 | 0.00 | 0.00 | 88 | 1007.6 |
| 20260505065658 | 54 | 141 | 0.0 | 0.0 | 0.00 | 0.00 | 0.00 | 88 | 1007.6 |
| 20260505065558 | 55 | 141 | 0.0 | 0.0 | 0.00 | 0.00 | 0.00 | 88 | 1007.6 |
| 20260505065459 | 55 | 141 | 0.0 | 0.0 | 0.00 | 0.00 | 0.00 | 88 | 1007.6 |
| 20260505065359 | 55 | 141 | 0.0 | 0.0 | 0.00 | 0.00 | 0.00 | 88 | 1007.6 |
| 20260505065258 | 55 | 141 | 0.0 | 0.0 | 0.00 | 0.00 | 0.00 | 88 | 1007.6 |
| 20260505065158 | 55 | 141 | 0.0 | 0.0 | 0.00 | 0.00 | 0.00 | 88 | 1007.6 |
| 20260505064959 | 55 | 141 | 0.0 | 0.0 | 0.00 | 0.00 | 0.00 | 88 | 1007.6 |
| 20260505064759 | 55 | 141 | 0.0 | 0.0 | 0.00 | 0.00 | 0.00 | 88 | 1007.5 |
| 20260505064657 | 55 | 141 | 0.0 | 0.0 | 0.00 | 0.00 | 0.00 | 88 | 1007.5 |
| 20260505064559 | 55 | 141 | 0.0 | 0.0 | 0.00 | 0.00 | 0.00 | 88 | 1007.5 |
| 20260505064500 | 55 | 140 | 0.0 | 0.0 | 0.00 | 0.00 | 0.00 | 87 | 1007.5 |
| 20260505064359 | 55 | 141 | 0.0 | 0.0 | 0.00 | 0.00 | 0.00 | 87 | 1007.6 |
| 20260505064258 | 55 | 141 | 0.0 | 0.0 | 0.00 | 0.00 | 0.00 | 87 | 1007.6 |
| 20260505064158 | 55 | 141 | 0.0 | 0.0 | 0.00 | 0.00 | 0.00 | 87 | 1007.6 |
| 20260505064058 | 55 | 141 | 0.0 | 0.0 | 0.00 | 0.00 | 0.00 | 88 | 1007.6 |
| 20260505064001 | 55 | 141 | 0.0 | 0.0 | 0.00 | 0.00 | 0.00 | 87 | 1007.6 |
| 20260505063859 | 55 | 141 | 0.0 | 0.0 | 0.00 | 0.00 | 0.00 | 87 | 1007.7 |
| 20260505063759 | 55 | 141 | 0.0 | 0.0 | 0.00 | 0.00 | 0.00 | 87 | 1007.7 |
| 20260505063659 | 55 | 141 | 0.0 | 0.0 | 0.00 | 0.00 | 0.00 | 87 | 1007.6 |
| 20260505063558 | 55 | 141 | 0.0 | 0.0 | 0.00 | 0.00 | 0.00 | 87 | 1007.6 |
| 20260505063258 | 55 | 141 | 0.0 | 0.0 | 0.00 | 0.00 | 0.00 | 87 | 1007.7 |
| 20260505063158 | 55 | 141 | 0.0 | 0.0 | 0.00 | 0.00 | 0.00 | 87 | 1007.7 |
| 20260505063058 | 55 | 141 | 0.0 | 0.0 | 0.00 | 0.00 | 0.00 | 87 | 1007.7 |
| 20260505063000 | 55 | 141 | 0.0 | 0.0 | 0.00 | 0.00 | 0.00 | 87 | 1007.7 |
| 20260505062858 | 55 | 141 | 0.0 | 0.0 | 0.00 | 0.00 | 0.00 | 87 | 1007.7 |
| 20260505062759 | 55 | 141 | 0.0 | 0.0 | 0.00 | 0.00 | 0.00 | 87 | 1007.8 |
| 20260505062700 | 55 | 141 | 0.0 | 0.0 | 0.00 | 0.00 | 0.00 | 87 | 1007.9 |
| 20260505062459 | 55 | 141 | 0.0 | 0.0 | 0.00 | 0.00 | 0.00 | 87 | 1007.9 |
| 20260505062357 | 55 | 141 | 0.0 | 0.0 | 0.00 | 0.00 | 0.00 | 86 | 1007.8 |
| 20260505062158 | 55 | 141 | 0.0 | 0.0 | 0.00 | 0.00 | 0.00 | 86 | 1007.7 |
| 20260505062100 | 56 | 141 | 0.0 | 0.0 | 0.00 | 0.00 | 0.00 | 86 | 1007.8 |
| 20260505061959 | 56 | 141 | 0.0 | 0.0 | 0.00 | 0.00 | 0.00 | 86 | 1007.7 |
| 20260505061858 | 56 | 141 | 0.0 | 0.0 | 0.00 | 0.00 | 0.00 | 86 | 1007.8 |
| 20260505061759 | 56 | 141 | 0.0 | 0.0 | 0.00 | 0.00 | 0.00 | 86 | 1007.8 |
| 20260505061358 | 56 | 141 | 0.0 | 0.0 | 0.00 | 0.00 | 0.00 | 86 | 1007.8 |
| 20260505061258 | 56 | 141 | 0.0 | 0.0 | 0.00 | 0.00 | 0.00 | 86 | 1007.8 |
| 20260505061058 | 56 | 141 | 0.0 | 0.0 | 0.00 | 0.00 | 0.00 | 85 | 1007.9 |
| 20260505060959 | 56 | 141 | 0.0 | 0.0 | 0.00 | 0.00 | 0.00 | 85 | 1007.9 |
| 20260505060858 | 56 | 141 | 0.0 | 0.0 | 0.00 | 0.00 | 0.00 | 85 | 1008.0 |
| 20260505060759 | 56 | 141 | 0.0 | 0.0 | 0.00 | 0.00 | 0.00 | 85 | 1007.9 |
| 20260505060658 | 56 | 141 | 0.0 | 0.0 | 0.00 | 0.00 | 0.00 | 85 | 1007.9 |
| 20260505060559 | 56 | 141 | 0.0 | 0.0 | 0.00 | 0.00 | 0.00 | 85 | 1007.9 |
| 20260505060459 | 56 | 141 | 0.0 | 0.0 | 0.00 | 0.00 | 0.00 | 85 | 1007.9 |
| 20260505060358 | 56 | 141 | 0.0 | 0.0 | 0.00 | 0.00 | 0.00 | 85 | 1007.9 |
| 20260505060258 | 56 | 141 | 0.0 | 0.0 | 0.00 | 0.00 | 0.00 | 85 | 1007.7 |
| 20260505060157 | 56 | 141 | 0.0 | 0.0 | 0.00 | 0.00 | 0.00 | 85 | 1007.8 |
| 20260505060059 | 56 | 141 | 0.0 | 0.0 | 0.00 | 0.00 | 0.00 | 85 | 1007.8 |
| 20260505055958 | 56 | 141 | 0.0 | 0.0 | 0.00 | 0.00 | 0.00 | 85 | 1007.8 |
| 20260505055859 | 56 | 141 | 0.0 | 0.0 | 0.00 | 0.00 | 0.00 | 85 | 1007.9 |
| 20260505055756 | 56 | 141 | 0.0 | 0.0 | 0.00 | 0.00 | 0.00 | 85 | 1007.8 |
| 20260505055657 | 56 | 141 | 0.0 | 0.0 | 0.00 | 0.00 | 0.00 | 85 | 1007.7 |
| 20260505055556 | 56 | 141 | 0.0 | 0.0 | 0.00 | 0.00 | 0.00 | 85 | 1007.8 |
| 20260505055458 | 56 | 141 | 0.0 | 0.0 | 0.00 | 0.00 | 0.00 | 85 | 1007.8 |
| 20260505055356 | 56 | 141 | 0.0 | 0.0 | 0.00 | 0.00 | 0.00 | 85 | 1007.9 |
| 20260505055256 | 56 | 141 | 0.0 | 0.0 | 0.00 | 0.00 | 0.00 | 85 | 1007.9 |
| 20260505055157 | 56 | 141 | 0.0 | 0.0 | 0.00 | 0.00 | 0.00 | 85 | 1007.7 |
| 20260505055057 | 56 | 141 | 0.0 | 0.0 | 0.00 | 0.00 | 0.00 | 85 | 1007.9 |
| 20260505054959 | 56 | 141 | 0.0 | 0.0 | 0.00 | 0.00 | 0.00 | 84 | 1007.9 |
| 20260505054857 | 56 | 141 | 0.0 | 0.0 | 0.00 | 0.00 | 0.00 | 84 | 1007.7 |
| 20260505054757 | 56 | 141 | 0.0 | 0.0 | 0.00 | 0.00 | 0.00 | 85 | 1007.9 |
| 20260505054658 | 56 | 141 | 0.0 | 0.0 | 0.00 | 0.00 | 0.00 | 85 | 1007.8 |
| 20260505054356 | 56 | 141 | 0.0 | 0.0 | 0.00 | 0.00 | 0.00 | 85 | 1007.8 |
| 20260505054157 | 56 | 141 | 0.0 | 0.0 | 0.00 | 0.00 | 0.00 | 85 | 1007.8 |
| 20260505054056 | 56 | 141 | 0.0 | 0.0 | 0.00 | 0.00 | 0.00 | 84 | 1007.8 |
| 20260505053958 | 56 | 141 | 0.0 | 0.0 | 0.00 | 0.00 | 0.00 | 84 | 1007.8 |
| 20260505053856 | 56 | 141 | 0.0 | 0.0 | 0.00 | 0.00 | 0.00 | 84 | 1007.8 |
| 20260505053757 | 56 | 141 | 0.0 | 0.0 | 0.00 | 0.00 | 0.00 | 84 | 1007.8 |
| 20260505053657 | 56 | 141 | 0.0 | 0.0 | 0.00 | 0.00 | 0.00 | 84 | 1007.8 |
| 20260505053556 | 56 | 141 | 0.0 | 0.0 | 0.00 | 0.00 | 0.00 | 84 | 1007.9 |
| 20260505053458 | 56 | 141 | 0.0 | 0.0 | 0.00 | 0.00 | 0.00 | 83 | 1007.9 |
| 20260505053358 | 56 | 141 | 0.0 | 0.0 | 0.00 | 0.00 | 0.00 | 83 | 1007.9 |
| 20260505053156 | 56 | 141 | 0.0 | 0.0 | 0.00 | 0.00 | 0.00 | 83 | 1007.8 |
| 20260505053056 | 56 | 141 | 0.0 | 0.0 | 0.00 | 0.00 | 0.00 | 83 | 1007.8 |
| 20260505052958 | 56 | 141 | 0.0 | 0.0 | 0.00 | 0.00 | 0.00 | 83 | 1007.9 |
| 20260505052856 | 56 | 141 | 0.0 | 0.0 | 0.00 | 0.00 | 0.00 | 84 | 1007.9 |
| 20260505052758 | 56 | 141 | 0.0 | 0.0 | 0.00 | 0.00 | 0.00 | 84 | 1007.9 |
| 20260505052658 | 56 | 141 | 0.0 | 0.0 | 0.00 | 0.00 | 0.00 | 84 | 1007.9 |
| 20260505052557 | 56 | 141 | 0.0 | 0.0 | 0.00 | 0.00 | 0.00 | 83 | 1007.8 |
| 20260505052458 | 56 | 141 | 0.0 | 0.0 | 0.00 | 0.00 | 0.00 | 83 | 1007.8 |
| 20260505052256 | 56 | 141 | 0.0 | 0.0 | 0.00 | 0.00 | 0.00 | 83 | 1007.9 |
| 20260505052157 | 56 | 141 | 0.0 | 0.0 | 0.00 | 0.00 | 0.00 | 83 | 1007.9 |
| 20260505052057 | 56 | 141 | 0.0 | 0.0 | 0.00 | 0.00 | 0.00 | 83 | 1007.9 |
| 20260505051958 | 56 | 141 | 0.0 | 0.0 | 0.00 | 0.00 | 0.00 | 83 | 1007.8 |
| 20260505051857 | 56 | 141 | 0.0 | 0.0 | 0.00 | 0.00 | 0.00 | 83 | 1007.8 |
| 20260505051657 | 56 | 141 | 0.0 | 0.9 | 0.00 | 0.00 | 0.00 | 83 | 1007.7 |
| 20260505051558 | 56 | 141 | 0.0 | 0.9 | 0.00 | 0.00 | 0.00 | 83 | 1007.7 |
| 20260505051500 | 56 | 141 | 0.0 | 0.9 | 0.00 | 0.00 | 0.00 | 83 | 1007.7 |
| 20260505051356 | 56 | 141 | 0.0 | 0.9 | 0.00 | 0.00 | 0.00 | 83 | 1007.7 |
| 20260505051157 | 56 | 141 | 0.0 | 0.9 | 0.00 | 0.00 | 0.00 | 83 | 1007.8 |
| 20260505051055 | 56 | 141 | 0.0 | 0.9 | 0.00 | 0.00 | 0.00 | 83 | 1007.8 |
| 20260505051000 | 56 | 141 | 0.0 | 0.9 | 0.00 | 0.00 | 0.00 | 83 | 1007.8 |
| 20260505050856 | 56 | 141 | 0.0 | 0.9 | 0.00 | 0.00 | 0.00 | 83 | 1007.8 |
| 20260505050757 | 56 | 141 | 0.0 | 0.9 | 0.00 | 0.00 | 0.00 | 83 | 1007.8 |
| 20260505050657 | 56 | 141 | 0.0 | 0.9 | 0.00 | 0.00 | 0.00 | 83 | 1007.8 |
| 20260505050557 | 56 | 141 | 0.0 | 0.9 | 0.00 | 0.00 | 0.00 | 83 | 1007.8 |
| 20260505050458 | 56 | 141 | 0.0 | 0.9 | 0.00 | 0.00 | 0.00 | 83 | 1007.9 |
| 20260505050357 | 56 | 141 | 0.0 | 0.9 | 0.00 | 0.00 | 0.00 | 83 | 1007.8 |
| 20260505050257 | 56 | 141 | 0.0 | 0.0 | 0.00 | 0.00 | 0.00 | 83 | 1007.8 |
| 20260505050157 | 56 | 141 | 0.0 | 0.0 | 0.00 | 0.00 | 0.00 | 83 | 1007.8 |
| 20260505041758 | 56 | 141 | 0.0 | 1.7 | 0.00 | 0.00 | 0.00 | 81 | 1007.6 |
| 20260505041658 | 56 | 141 | 0.0 | 1.7 | 0.00 | 0.00 | 0.00 | 81 | 1007.6 |
| 20260505041556 | 56 | 141 | 0.0 | 1.7 | 0.00 | 0.00 | 0.00 | 81 | 1007.6 |
| 20260505041356 | 56 | 141 | 0.9 | 1.7 | 0.00 | 0.00 | 0.00 | 81 | 1007.6 |
| 20260505041258 | 56 | 141 | 0.0 | 0.9 | 0.00 | 0.00 | 0.00 | 81 | 1007.6 |
| 20260505041057 | 56 | 141 | 0.0 | 1.7 | 0.00 | 0.00 | 0.00 | 81 | 1007.6 |
| 20260505040959 | 56 | 141 | 0.0 | 1.7 | 0.00 | 0.00 | 0.00 | 81 | 1007.5 |
| 20260505040857 | 56 | 141 | 0.0 | 1.7 | 0.00 | 0.00 | 0.00 | 81 | 1007.5 |
| 20260505040757 | 56 | 141 | 0.0 | 1.7 | 0.00 | 0.00 | 0.00 | 81 | 1007.5 |
| 20260505040657 | 56 | 141 | 0.0 | 1.7 | 0.00 | 0.00 | 0.00 | 81 | 1007.5 |
| 20260505040458 | 56 | 141 | 0.0 | 1.7 | 0.00 | 0.00 | 0.00 | 80 | 1007.5 |
| 20260505040357 | 56 | 141 | 0.0 | 1.7 | 0.00 | 0.00 | 0.00 | 80 | 1007.5 |
| 20260505040200 | 56 | 141 | 0.0 | 1.7 | 0.00 | 0.00 | 0.00 | 80 | 1007.5 |
| 20260505040101 | 56 | 141 | 0.0 | 0.9 | 0.00 | 0.00 | 0.00 | 80 | 1007.5 |
| 20260505035859 | 56 | 141 | 0.0 | 1.7 | 0.00 | 0.00 | 0.00 | 80 | 1007.6 |
| 20260505035759 | 56 | 141 | 0.0 | 1.7 | 0.00 | 0.00 | 0.00 | 80 | 1007.6 |
| 20260505035700 | 56 | 141 | 0.0 | 1.7 | 0.00 | 0.00 | 0.00 | 80 | 1007.6 |
| 20260505035600 | 56 | 141 | 0.0 | 1.7 | 0.00 | 0.00 | 0.00 | 80 | 1007.6 |
| 20260505035503 | 56 | 141 | 0.0 | 1.7 | 0.00 | 0.00 | 0.00 | 80 | 1007.6 |
| 20260505035200 | 56 | 141 | 0.0 | 1.7 | 0.00 | 0.00 | 0.00 | 80 | 1007.6 |
| 20260505035059 | 56 | 141 | 0.0 | 1.7 | 0.00 | 0.00 | 0.00 | 80 | 1007.6 |
| 20260505035003 | 56 | 141 | 0.0 | 0.9 | 0.00 | 0.00 | 0.00 | 80 | 1007.6 |
| 20260505034901 | 56 | 141 | 0.0 | 0.9 | 0.00 | 0.00 | 0.00 | 79 | 1007.7 |
| 20260505034659 | 56 | 141 | 0.0 | 1.7 | 0.00 | 0.00 | 0.00 | 80 | 1007.6 |
| 20260505034600 | 56 | 141 | 0.0 | 1.7 | 0.00 | 0.00 | 0.00 | 80 | 1007.6 |
| 20260505034500 | 56 | 141 | 0.0 | 1.7 | 0.00 | 0.00 | 0.00 | 80 | 1007.6 |
| 20260505034359 | 56 | 141 | 0.0 | 1.7 | 0.00 | 0.00 | 0.00 | 79 | 1007.6 |
| 20260505034200 | 56 | 141 | 0.0 | 1.7 | 0.00 | 0.00 | 0.00 | 79 | 1007.6 |
| 20260505034059 | 56 | 141 | 0.9 | 1.7 | 0.00 | 0.00 | 0.00 | 79 | 1007.6 |
| 20260505034004 | 56 | 141 | 0.0 | 1.7 | 0.00 | 0.00 | 0.00 | 79 | 1007.6 |
| 20260505033900 | 56 | 141 | 0.0 | 1.7 | 0.00 | 0.00 | 0.00 | 79 | 1007.6 |
| 20260505033800 | 56 | 141 | 0.0 | 1.7 | 0.00 | 0.00 | 0.00 | 79 | 1007.6 |
| 20260505033700 | 56 | 141 | 0.9 | 1.7 | 0.00 | 0.00 | 0.00 | 79 | 1007.6 |
| 20260505033559 | 56 | 141 | 0.0 | 1.7 | 0.00 | 0.00 | 0.00 | 79 | 1007.6 |
| 20260505033501 | 56 | 141 | 0.0 | 1.7 | 0.00 | 0.00 | 0.00 | 79 | 1007.5 |
| 20260505033359 | 56 | 141 | 0.9 | 1.7 | 0.00 | 0.00 | 0.00 | 79 | 1007.5 |
| 20260505033300 | 56 | 141 | 0.9 | 0.9 | 0.00 | 0.00 | 0.00 | 79 | 1007.4 |
| 20260505033059 | 56 | 141 | 0.0 | 0.0 | 0.00 | 0.00 | 0.00 | 79 | 1007.4 |
| 20260505032900 | 56 | 141 | 0.0 | 0.0 | 0.00 | 0.00 | 0.00 | 79 | 1007.4 |
| 20260505032759 | 56 | 141 | 0.0 | 0.0 | 0.00 | 0.00 | 0.00 | 79 | 1007.5 |
| 20260505032559 | 56 | 141 | 0.0 | 0.9 | 0.00 | 0.00 | 0.00 | 78 | 1007.5 |
| 20260505032503 | 56 | 141 | 0.0 | 0.9 | 0.00 | 0.00 | 0.00 | 78 | 1007.5 |
| 20260505032400 | 56 | 141 | 0.0 | 0.9 | 0.00 | 0.00 | 0.00 | 78 | 1007.6 |
| 20260505032300 | 56 | 141 | 0.0 | 0.9 | 0.00 | 0.00 | 0.00 | 78 | 1007.6 |
| 20260505032159 | 56 | 141 | 0.0 | 0.9 | 0.00 | 0.00 | 0.00 | 78 | 1007.6 |
| 20260505032058 | 56 | 141 | 0.0 | 1.7 | 0.00 | 0.00 | 0.00 | 78 | 1007.6 |
| 20260505032004 | 57 | 141 | 0.0 | 1.7 | 0.00 | 0.00 | 0.00 | 77 | 1007.6 |
| 20260505031700 | 57 | 141 | 0.0 | 1.7 | 0.00 | 0.00 | 0.00 | 77 | 1007.6 |
| 20260505031558 | 57 | 141 | 0.0 | 1.7 | 0.00 | 0.00 | 0.00 | 77 | 1007.6 |
| 20260505031503 | 57 | 141 | 0.0 | 1.7 | 0.00 | 0.00 | 0.00 | 77 | 1007.6 |
| 20260505031300 | 57 | 141 | 0.0 | 1.7 | 0.00 | 0.00 | 0.00 | 77 | 1007.6 |
| 20260505031159 | 57 | 141 | 0.9 | 1.7 | 0.00 | 0.00 | 0.00 | 77 | 1007.6 |
| 20260505031059 | 57 | 141 | 0.0 | 1.7 | 0.00 | 0.00 | 0.00 | 77 | 1007.5 |
| 20260505031000 | 57 | 141 | 0.0 | 1.7 | 0.00 | 0.00 | 0.00 | 78 | 1007.6 |
| 20260505030759 | 57 | 141 | 0.0 | 1.7 | 0.00 | 0.00 | 0.00 | 78 | 1007.5 |
| 20260505030659 | 57 | 141 | 0.0 | 1.7 | 0.00 | 0.00 | 0.00 | 78 | 1007.5 |
| 20260505030600 | 57 | 141 | 0.9 | 1.7 | 0.00 | 0.00 | 0.00 | 78 | 1007.5 |
| 20260505030501 | 57 | 141 | 0.0 | 1.7 | 0.00 | 0.00 | 0.00 | 78 | 1007.6 |
| 20260505030359 | 57 | 141 | 0.0 | 1.7 | 0.00 | 0.00 | 0.00 | 78 | 1007.6 |
| 20260505030300 | 57 | 141 | 1.7 | 1.7 | 0.00 | 0.00 | 0.00 | 77 | 1007.6 |
| 20260505030159 | 57 | 141 | 0.0 | 1.7 | 0.00 | 0.00 | 0.00 | 77 | 1007.6 |
| 20260505025959 | 57 | 141 | 0.9 | 2.6 | 0.00 | 0.00 | 0.00 | 77 | 1007.6 |
| 20260505025859 | 57 | 141 | 0.0 | 2.6 | 0.00 | 0.00 | 0.00 | 77 | 1007.6 |
| 20260505025758 | 57 | 141 | 0.0 | 2.6 | 0.00 | 0.00 | 0.00 | 77 | 1007.7 |
| 20260505025559 | 57 | 141 | 0.9 | 3.5 | 0.00 | 0.00 | 0.00 | 77 | 1007.6 |
| 20260505025459 | 58 | 141 | 0.9 | 3.5 | 0.00 | 0.00 | 0.00 | 76 | 1007.6 |
| 20260505025258 | 58 | 141 | 0.0 | 3.5 | 0.00 | 0.00 | 0.00 | 76 | 1007.6 |
| 20260505025158 | 58 | 141 | 0.0 | 3.5 | 0.00 | 0.00 | 0.00 | 76 | 1007.6 |
| 20260505025058 | 58 | 141 | 1.7 | 3.5 | 0.00 | 0.00 | 0.00 | 76 | 1007.6 |
| 20260505024959 | 58 | 142 | 0.0 | 3.5 | 0.00 | 0.00 | 0.00 | 76 | 1007.6 |
| 20260505024858 | 58 | 142 | 0.0 | 3.5 | 0.00 | 0.00 | 0.00 | 76 | 1007.6 |
| 20260505024759 | 58 | 142 | 0.9 | 3.5 | 0.00 | 0.00 | 0.00 | 76 | 1007.6 |
| 20260505024657 | 58 | 142 | 1.7 | 3.5 | 0.00 | 0.00 | 0.00 | 75 | 1007.5 |
| 20260505024558 | 58 | 109 | 0.9 | 1.7 | 0.00 | 0.00 | 0.00 | 75 | 1007.6 |
| 20260505024500 | 58 | 109 | 0.0 | 1.7 | 0.00 | 0.00 | 0.00 | 76 | 1007.6 |
| 20260505024358 | 58 | 109 | 0.0 | 1.7 | 0.00 | 0.00 | 0.00 | 76 | 1007.5 |
| 20260505024258 | 58 | 109 | 0.0 | 1.7 | 0.00 | 0.00 | 0.00 | 76 | 1007.5 |
| 20260505024158 | 58 | 109 | 0.0 | 1.7 | 0.00 | 0.00 | 0.00 | 76 | 1007.5 |
| 20260505024058 | 57 | 109 | 0.9 | 1.7 | 0.00 | 0.00 | 0.00 | 76 | 1007.4 |
| 20260505023858 | 57 | 109 | 1.7 | 1.7 | 0.00 | 0.00 | 0.00 | 76 | 1007.4 |
| 20260505023758 | 57 | 109 | 0.0 | 1.7 | 0.00 | 0.00 | 0.00 | 76 | 1007.4 |
| 20260505023659 | 57 | 109 | 0.0 | 0.0 | 0.00 | 0.00 | 0.00 | 77 | 1007.4 |
| 20260505023558 | 57 | 109 | 0.0 | 0.0 | 0.00 | 0.00 | 0.00 | 77 | 1007.4 |
| 20260505023500 | 57 | 109 | 0.0 | 0.0 | 0.00 | 0.00 | 0.00 | 77 | 1007.3 |
| 20260505023358 | 57 | 109 | 0.0 | 0.0 | 0.00 | 0.00 | 0.00 | 77 | 1007.3 |
| 20260505023158 | 57 | 109 | 0.0 | 1.7 | 0.00 | 0.00 | 0.00 | 77 | 1007.3 |
| 20260505023059 | 57 | 109 | 0.0 | 1.7 | 0.00 | 0.00 | 0.00 | 77 | 1007.3 |
| 20260505022857 | 57 | 109 | 0.0 | 2.6 | 0.00 | 0.00 | 0.00 | 77 | 1007.4 |
| 20260505022758 | 57 | 109 | 0.0 | 2.6 | 0.00 | 0.00 | 0.00 | 77 | 1007.3 |
| 20260505022558 | 57 | 109 | 0.0 | 2.6 | 0.00 | 0.00 | 0.00 | 77 | 1007.4 |
| 20260505022500 | 57 | 109 | 0.0 | 2.6 | 0.00 | 0.00 | 0.00 | 77 | 1007.3 |
| 20260505022359 | 57 | 109 | 0.0 | 2.6 | 0.00 | 0.00 | 0.00 | 76 | 1007.3 |
| 20260505022258 | 57 | 109 | 1.7 | 2.6 | 0.00 | 0.00 | 0.00 | 77 | 1007.3 |
| 20260505022158 | 58 | 109 | 0.0 | 2.6 | 0.00 | 0.00 | 0.00 | 76 | 1007.3 |
| 20260505022058 | 58 | 109 | 0.0 | 2.6 | 0.00 | 0.00 | 0.00 | 76 | 1007.2 |
| 20260505022000 | 58 | 109 | 1.7 | 2.6 | 0.00 | 0.00 | 0.00 | 76 | 1007.3 |
| 20260505021758 | 58 | 109 | 0.0 | 2.6 | 0.00 | 0.00 | 0.00 | 76 | 1007.3 |
| 20260505021557 | 58 | 109 | 0.9 | 2.6 | 0.00 | 0.00 | 0.00 | 75 | 1007.3 |
| 20260505021459 | 58 | 109 | 0.0 | 2.6 | 0.00 | 0.00 | 0.00 | 75 | 1007.3 |
| 20260505021259 | 58 | 109 | 0.0 | 2.6 | 0.00 | 0.00 | 0.00 | 75 | 1007.3 |
| 20260505021158 | 58 | 109 | 0.0 | 1.7 | 0.00 | 0.00 | 0.00 | 75 | 1007.3 |
| 20260505021059 | 58 | 109 | 0.0 | 1.7 | 0.00 | 0.00 | 0.00 | 75 | 1007.4 |
| 20260505020857 | 58 | 109 | 0.0 | 1.7 | 0.00 | 0.00 | 0.00 | 75 | 1007.4 |
| 20260505020758 | 58 | 109 | 0.0 | 1.7 | 0.00 | 0.00 | 0.00 | 75 | 1007.4 |
| 20260505020658 | 58 | 109 | 0.0 | 1.7 | 0.00 | 0.00 | 0.00 | 75 | 1007.3 |
| 20260505020459 | 58 | 109 | 0.0 | 2.6 | 0.00 | 0.00 | 0.00 | 75 | 1007.3 |
| 20260505020358 | 58 | 109 | 1.7 | 2.6 | 0.00 | 0.00 | 0.00 | 75 | 1007.3 |
| 20260505020159 | 58 | 109 | 0.0 | 2.6 | 0.00 | 0.00 | 0.00 | 75 | 1007.3 |
| 20260505020059 | 58 | 109 | 0.0 | 2.6 | 0.00 | 0.00 | 0.00 | 75 | 1007.3 |
| 20260505020000 | 58 | 109 | 0.0 | 2.6 | 0.00 | 0.00 | 0.00 | 75 | 1007.3 |
| 20260505015859 | 58 | 109 | 0.0 | 2.6 | 0.00 | 0.00 | 0.00 | 75 | 1007.3 |
| 20260505015759 | 58 | 109 | 0.0 | 2.6 | 0.00 | 0.00 | 0.00 | 75 | 1007.3 |
| 20260505015658 | 58 | 109 | 0.9 | 2.6 | 0.00 | 0.00 | 0.00 | 75 | 1007.3 |
| 20260505015559 | 58 | 109 | 1.7 | 1.7 | 0.00 | 0.00 | 0.00 | 75 | 1007.4 |
| 20260505015500 | 59 | 109 | 0.0 | 1.7 | 0.00 | 0.00 | 0.00 | 75 | 1007.4 |
| 20260505015359 | 59 | 109 | 0.0 | 1.7 | 0.00 | 0.00 | 0.00 | 74 | 1007.4 |
| 20260505015259 | 59 | 109 | 0.0 | 1.7 | 0.00 | 0.00 | 0.00 | 74 | 1007.3 |
| 20260505015158 | 59 | 109 | 0.0 | 1.7 | 0.00 | 0.00 | 0.00 | 74 | 1007.3 |
| 20260505015100 | 59 | 109 | 0.0 | 1.7 | 0.00 | 0.00 | 0.00 | 74 | 1007.3 |
| 20260505015001 | 59 | 109 | 0.0 | 1.7 | 0.00 | 0.00 | 0.00 | 74 | 1007.3 |
| 20260505014858 | 59 | 109 | 0.0 | 1.7 | 0.00 | 0.00 | 0.00 | 73 | 1007.4 |
| 20260505014601 | 59 | 109 | 0.0 | 2.6 | 0.00 | 0.00 | 0.00 | 73 | 1007.3 |
| 20260505014501 | 59 | 109 | 0.0 | 2.6 | 0.00 | 0.00 | 0.00 | 73 | 1007.4 |
| 20260505014359 | 59 | 109 | 0.0 | 2.6 | 0.00 | 0.00 | 0.00 | 73 | 1007.4 |
| 20260505014258 | 59 | 109 | 0.0 | 2.6 | 0.00 | 0.00 | 0.00 | 73 | 1007.4 |
| 20260505014200 | 59 | 109 | 0.0 | 2.6 | 0.00 | 0.00 | 0.00 | 73 | 1007.3 |
| 20260505014058 | 59 | 109 | 0.0 | 2.6 | 0.00 | 0.00 | 0.00 | 73 | 1007.3 |
| 20260505014000 | 59 | 109 | 0.0 | 2.6 | 0.00 | 0.00 | 0.00 | 73 | 1007.3 |
| 20260505013900 | 59 | 109 | 0.9 | 2.6 | 0.00 | 0.00 | 0.00 | 72 | 1007.3 |
| 20260505013800 | 59 | 109 | 0.0 | 1.7 | 0.00 | 0.00 | 0.00 | 72 | 1007.3 |
| 20260505013659 | 59 | 109 | 0.0 | 1.7 | 0.00 | 0.00 | 0.00 | 72 | 1007.3 |
| 20260505013600 | 59 | 109 | 0.0 | 1.7 | 0.00 | 0.00 | 0.00 | 72 | 1007.3 |
| 20260505013504 | 59 | 109 | 0.9 | 1.7 | 0.00 | 0.00 | 0.00 | 72 | 1007.2 |
| 20260505013258 | 59 | 109 | 0.0 | 1.7 | 0.00 | 0.00 | 0.00 | 72 | 1007.2 |
| 20260505013058 | 60 | 109 | 0.0 | 1.7 | 0.00 | 0.00 | 0.00 | 72 | 1007.1 |
| 20260505013000 | 60 | 109 | 0.0 | 1.7 | 0.00 | 0.00 | 0.00 | 71 | 1007.2 |
| 20260505012858 | 60 | 109 | 0.9 | 1.7 | 0.00 | 0.00 | 0.00 | 71 | 1007.1 |
| 20260505012759 | 60 | 109 | 0.0 | 1.7 | 0.00 | 0.00 | 0.00 | 71 | 1007.2 |
| 20260505012700 | 60 | 109 | 0.9 | 1.7 | 0.00 | 0.00 | 0.00 | 71 | 1007.2 |
| 20260505012559 | 60 | 109 | 0.0 | 1.7 | 0.00 | 0.00 | 0.00 | 71 | 1007.2 |
| 20260505012504 | 60 | 109 | 0.0 | 1.7 | 0.00 | 0.00 | 0.00 | 71 | 1007.2 |
| 20260505012359 | 60 | 109 | 0.0 | 1.7 | 0.00 | 0.00 | 0.00 | 70 | 1007.2 |
| 20260505012259 | 61 | 109 | 0.9 | 1.7 | 0.00 | 0.00 | 0.00 | 70 | 1007.3 |
| 20260505012158 | 61 | 109 | 0.0 | 1.7 | 0.00 | 0.00 | 0.00 | 70 | 1007.3 |
| 20260505012100 | 61 | 109 | 0.0 | 1.7 | 0.00 | 0.00 | 0.00 | 70 | 1007.3 |
| 20260505012002 | 61 | 109 | 0.0 | 1.7 | 0.00 | 0.00 | 0.00 | 69 | 1007.3 |
| 20260505011859 | 61 | 109 | 0.0 | 1.7 | 0.00 | 0.00 | 0.00 | 69 | 1007.3 |
| 20260505011800 | 61 | 109 | 0.0 | 1.7 | 0.00 | 0.00 | 0.00 | 69 | 1007.3 |
| 20260505011700 | 61 | 109 | 0.0 | 1.7 | 0.00 | 0.00 | 0.00 | 69 | 1007.3 |
| 20260505011559 | 61 | 109 | 0.0 | 1.7 | 0.00 | 0.00 | 0.00 | 69 | 1007.3 |
| 20260505011503 | 61 | 109 | 0.9 | 1.7 | 0.00 | 0.00 | 0.00 | 68 | 1007.2 |
| 20260505011400 | 61 | 109 | 0.9 | 1.7 | 0.00 | 0.00 | 0.00 | 68 | 1007.3 |
| 20260505011259 | 61 | 109 | 0.9 | 1.7 | 0.00 | 0.00 | 0.00 | 68 | 1007.2 |
| 20260505011158 | 62 | 109 | 1.7 | 1.7 | 0.00 | 0.00 | 0.00 | 68 | 1007.2 |
| 20260505011100 | 62 | 109 | 0.9 | 1.7 | 0.00 | 0.00 | 0.00 | 68 | 1007.2 |
| 20260505011002 | 62 | 109 | 0.0 | 1.7 | 0.00 | 0.00 | 0.00 | 68 | 1007.2 |
| 20260505010859 | 62 | 109 | 0.9 | 1.7 | 0.00 | 0.00 | 0.00 | 68 | 1007.2 |
| 20260505010801 | 62 | 109 | 1.7 | 1.7 | 0.00 | 0.00 | 0.00 | 67 | 1007.2 |
| 20260505010659 | 62 | 109 | 0.9 | 1.7 | 0.00 | 0.00 | 0.00 | 67 | 1007.2 |
| 20260505010600 | 62 | 109 | 0.9 | 1.7 | 0.00 | 0.00 | 0.00 | 66 | 1007.1 |
| 20260505010502 | 62 | 109 | 0.0 | 1.7 | 0.00 | 0.00 | 0.00 | 66 | 1007.1 |
| 20260505010400 | 62 | 109 | 0.0 | 1.7 | 0.00 | 0.00 | 0.00 | 66 | 1007.1 |
| 20260505010301 | 62 | 109 | 0.0 | 2.6 | 0.00 | 0.00 | 0.00 | 66 | 1007.1 |
| 20260505010200 | 63 | 109 | 0.9 | 2.6 | 0.00 | 0.00 | 0.00 | 66 | 1007.1 |
| 20260505010100 | 63 | 109 | 0.0 | 2.6 | 0.00 | 0.00 | 0.00 | 66 | 1007.0 |
| 20260505005858 | 63 | 109 | 1.7 | 2.6 | 0.00 | 0.00 | 0.00 | 65 | 1007.0 |
| 20260505005758 | 63 | 109 | 0.9 | 2.6 | 0.00 | 0.00 | 0.00 | 64 | 1007.0 |
| 20260505005558 | 63 | 109 | 0.9 | 2.6 | 0.00 | 0.00 | 0.00 | 64 | 1006.9 |
| 20260505005501 | 63 | 109 | 0.9 | 2.6 | 0.00 | 0.00 | 0.00 | 64 | 1006.9 |
| 20260505005259 | 64 | 109 | 0.9 | 2.6 | 0.00 | 0.00 | 0.00 | 63 | 1006.9 |
| 20260505005159 | 64 | 109 | 0.9 | 2.6 | 0.00 | 0.00 | 0.00 | 63 | 1006.9 |
| 20260505005059 | 64 | 109 | 0.9 | 2.6 | 0.00 | 0.00 | 0.00 | 63 | 1006.9 |
| 20260505004858 | 64 | 109 | 0.0 | 1.7 | 0.00 | 0.00 | 0.00 | 63 | 1006.9 |
| 20260505004758 | 64 | 109 | 0.9 | 1.7 | 0.00 | 0.00 | 0.00 | 63 | 1006.9 |
| 20260505004658 | 64 | 109 | 0.0 | 1.7 | 0.00 | 0.00 | 0.00 | 62 | 1006.8 |
| 20260505004558 | 64 | 109 | 0.0 | 1.7 | 0.00 | 0.00 | 0.00 | 62 | 1006.8 |
| 20260505004500 | 65 | 109 | 0.0 | 1.7 | 0.00 | 0.00 | 0.00 | 62 | 1006.8 |
| 20260505004258 | 65 | 109 | 0.9 | 1.7 | 0.00 | 0.00 | 0.00 | 61 | 1006.7 |
| 20260505004159 | 65 | 109 | 0.9 | 1.7 | 0.00 | 0.00 | 0.00 | 61 | 1006.8 |
| 20260505003858 | 65 | 109 | 0.9 | 1.7 | 0.00 | 0.00 | 0.00 | 60 | 1006.7 |
| 20260505003758 | 66 | 109 | 0.9 | 1.7 | 0.00 | 0.00 | 0.00 | 60 | 1006.7 |
| 20260505003701 | 66 | 109 | 0.9 | 1.7 | 0.00 | 0.00 | 0.00 | 60 | 1006.7 |
| 20260505003500 | 66 | 109 | 0.0 | 2.6 | 0.00 | 0.00 | 0.00 | 60 | 1006.6 |
| 20260505003359 | 66 | 109 | 0.0 | 2.6 | 0.00 | 0.00 | 0.00 | 59 | 1006.7 |
| 20260505003158 | 67 | 109 | 0.9 | 2.6 | 0.00 | 0.00 | 0.00 | 59 | 1006.7 |
| 20260505003058 | 67 | 109 | 0.0 | 2.6 | 0.00 | 0.00 | 0.00 | 58 | 1006.7 |
| 20260505003000 | 67 | 109 | 0.9 | 2.6 | 0.00 | 0.00 | 0.00 | 57 | 1006.7 |
| 20260505002859 | 67 | 109 | 0.9 | 2.6 | 0.00 | 0.00 | 0.00 | 57 | 1006.7 |
| 20260505002757 | 67 | 109 | 0.0 | 2.6 | 0.00 | 0.00 | 0.00 | 57 | 1006.7 |
| 20260505002659 | 67 | 109 | 0.0 | 2.6 | 0.00 | 0.00 | 0.00 | 57 | 1006.7 |
| 20260505002557 | 67 | 180 | 1.7 | 1.7 | 0.00 | 0.00 | 0.00 | 58 | 1006.7 |
| 20260505002459 | 67 | 180 | 0.9 | 1.7 | 0.00 | 0.00 | 0.00 | 58 | 1006.7 |
| 20260505002258 | 68 | 180 | 0.9 | 1.7 | 0.00 | 0.00 | 0.00 | 55 | 1006.6 |
| 20260505002159 | 68 | 180 | 1.7 | 1.7 | 0.00 | 0.00 | 0.00 | 55 | 1006.6 |
| 20260505002059 | 68 | 180 | 0.0 | 1.7 | 0.00 | 0.00 | 0.00 | 55 | 1006.6 |
| 20260505001959 | 68 | 180 | 0.0 | 1.7 | 0.00 | 0.00 | 0.00 | 55 | 1006.6 |
| 20260505001659 | 68 | 180 | 0.0 | 3.5 | 0.00 | 0.00 | 0.00 | 55 | 1006.6 |
| 20260505001559 | 69 | 180 | 0.0 | 3.5 | 0.00 | 0.00 | 0.00 | 54 | 1006.6 |
| 20260505001500 | 69 | 180 | 0.0 | 3.5 | 0.00 | 0.00 | 0.00 | 55 | 1006.6 |
| 20260505001359 | 69 | 180 | 0.0 | 3.5 | 0.00 | 0.00 | 0.00 | 53 | 1006.6 |
| 20260505001259 | 69 | 180 | 0.0 | 4.3 | 0.00 | 0.00 | 0.00 | 54 | 1006.6 |
| 20260505001157 | 69 | 180 | 0.0 | 4.3 | 0.00 | 0.00 | 0.00 | 54 | 1006.5 |
| 20260505001058 | 69 | 180 | 0.0 | 4.3 | 0.00 | 0.00 | 0.00 | 55 | 1006.5 |
| 20260505001001 | 69 | 180 | 0.0 | 4.3 | 0.00 | 0.00 | 0.00 | 53 | 1006.6 |
| 20260505000858 | 69 | 190 | 0.9 | 4.3 | 0.00 | 0.00 | 0.00 | 54 | 1006.4 |
| 20260505000758 | 69 | 190 | 0.9 | 4.3 | 0.00 | 0.00 | 0.00 | 54 | 1006.5 |
| 20260505000658 | 69 | 164 | 1.7 | 4.3 | 0.00 | 0.00 | 0.00 | 54 | 1006.5 |
| 20260505000558 | 69 | 236 | 0.9 | 4.3 | 0.00 | 0.00 | 0.00 | 54 | 1006.4 |
| 20260505000459 | 69 | 236 | 0.0 | 4.3 | 0.00 | 0.00 | 0.00 | 53 | 1006.5 |
| 20260505000359 | 69 | 236 | 0.9 | 4.3 | 0.00 | 0.00 | 0.00 | 52 | 1006.4 |
| 20260505000258 | 69 | 236 | 2.6 | 4.3 | 0.00 | 0.00 | 0.00 | 52 | 1006.4 |
| 20260505000058 | 69 | 88 | 0.9 | 2.6 | 0.00 | 0.00 | 0.00 | 53 | 1006.5 |
| 20260505000000 | 70 | 88 | 1.7 | 2.6 | 0.00 | 0.00 | 0.00 | 53 | 1006.5 |
| 20260504235900 | 70 | 88 | 0.9 | 4.3 | 0.00 | 0.00 | 0.00 | 53 | 1006.4 |
| 20260504235659 | 70 | 88 | 0.0 | 4.3 | 0.00 | 0.00 | 0.00 | 53 | 1006.4 |
| 20260504235559 | 70 | 88 | 2.6 | 4.3 | 0.00 | 0.00 | 0.00 | 52 | 1006.4 |
| 20260504235502 | 70 | 160 | 1.7 | 4.3 | 0.00 | 0.00 | 0.00 | 52 | 1006.4 |
| 20260504235400 | 70 | 163 | 0.0 | 4.3 | 0.00 | 0.00 | 0.00 | 53 | 1006.4 |
| 20260504235301 | 70 | 163 | 0.9 | 4.3 | 0.00 | 0.00 | 0.00 | 53 | 1006.4 |
| 20260504235159 | 70 | 163 | 0.9 | 4.3 | 0.00 | 0.00 | 0.00 | 52 | 1006.4 |
| 20260504235059 | 70 | 163 | 3.5 | 4.3 | 0.00 | 0.00 | 0.00 | 52 | 1006.4 |
| 20260504235001 | 70 | 163 | 1.7 | 4.3 | 0.00 | 0.00 | 0.00 | 52 | 1006.3 |
| 20260504234859 | 70 | 94 | 3.5 | 5.2 | 0.00 | 0.00 | 0.00 | 52 | 1006.5 |
| 20260504234759 | 70 | 36 | 2.6 | 2.6 | 0.00 | 0.00 | 0.00 | 53 | 1006.4 |
| 20260504234659 | 70 | 36 | 0.9 | 3.5 | 0.00 | 0.00 | 0.00 | 53 | 1006.4 |
| 20260504234559 | 70 | 36 | 0.0 | 3.5 | 0.00 | 0.00 | 0.00 | 52 | 1006.4 |
| 20260504234359 | 70 | 169 | 0.9 | 3.5 | 0.00 | 0.00 | 0.00 | 52 | 1006.4 |
| 20260504234159 | 70 | 289 | 0.9 | 5.2 | 0.00 | 0.00 | 0.00 | 52 | 1006.4 |
| 20260504234059 | 70 | 295 | 1.7 | 5.2 | 0.00 | 0.00 | 0.00 | 51 | 1006.3 |
| 20260504233959 | 70 | 243 | 0.9 | 5.2 | 0.00 | 0.00 | 0.00 | 52 | 1006.3 |
| 20260504233900 | 70 | 245 | 0.9 | 5.2 | 0.00 | 0.00 | 0.00 | 52 | 1006.3 |
| 20260504233800 | 70 | 209 | 1.7 | 7.0 | 0.00 | 0.00 | 0.00 | 52 | 1006.3 |
| 20260504233659 | 71 | 209 | 1.7 | 7.0 | 0.00 | 0.00 | 0.00 | 52 | 1006.2 |
| 20260504233600 | 71 | 204 | 1.7 | 7.0 | 0.00 | 0.00 | 0.00 | 52 | 1006.3 |
| 20260504233500 | 71 | 204 | 0.9 | 7.0 | 0.00 | 0.00 | 0.00 | 51 | 1006.3 |
| 20260504233401 | 71 | 204 | 0.9 | 7.0 | 0.00 | 0.00 | 0.00 | 52 | 1006.3 |
| 20260504233259 | 71 | 204 | 1.7 | 7.0 | 0.00 | 0.00 | 0.00 | 51 | 1006.3 |
| 20260504233058 | 71 | 164 | 0.0 | 7.0 | 0.00 | 0.00 | 0.00 | 51 | 1006.2 |
| 20260504232900 | 71 | 161 | 6.1 | 6.1 | 0.00 | 0.00 | 0.00 | 53 | 1006.2 |
| 20260504232800 | 71 | 161 | 0.9 | 6.1 | 0.00 | 0.00 | 0.00 | 51 | 1006.2 |
| 20260504232700 | 71 | 161 | 3.5 | 6.1 | 0.00 | 0.00 | 0.00 | 51 | 1006.3 |
| 20260504232558 | 71 | 190 | 2.6 | 5.2 | 0.00 | 0.00 | 0.00 | 52 | 1006.3 |
| 20260504232500 | 71 | 231 | 0.9 | 5.2 | 0.00 | 0.00 | 0.00 | 52 | 1006.3 |
| 20260504232359 | 71 | 231 | 0.9 | 5.2 | 0.00 | 0.00 | 0.00 | 51 | 1006.2 |
| 20260504232259 | 71 | 319 | 2.6 | 5.2 | 0.00 | 0.00 | 0.00 | 51 | 1006.2 |
| 20260504232158 | 71 | 196 | 1.7 | 7.0 | 0.00 | 0.00 | 0.00 | 52 | 1006.3 |
| 20260504232005 | 71 | 88 | 3.5 | 7.0 | 0.00 | 0.00 | 0.00 | 51 | 1006.2 |
| 20260504231900 | 71 | 69 | 1.7 | 7.0 | 0.00 | 0.00 | 0.00 | 52 | 1006.3 |
| 20260504231759 | 71 | 313 | 0.0 | 7.0 | 0.00 | 0.00 | 0.00 | 51 | 1006.2 |
| 20260504231700 | 71 | 335 | 3.5 | 7.0 | 0.00 | 0.00 | 0.00 | 50 | 1006.2 |
| 20260504231559 | 71 | 202 | 0.9 | 7.0 | 0.00 | 0.00 | 0.00 | 50 | 1006.3 |
| 20260504231500 | 71 | 178 | 5.2 | 7.0 | 0.00 | 0.00 | 0.00 | 51 | 1006.3 |
| 20260504231359 | 71 | 251 | 1.7 | 7.0 | 0.00 | 0.00 | 0.00 | 50 | 1006.3 |
| 20260504231259 | 71 | 285 | 2.6 | 5.2 | 0.00 | 0.00 | 0.00 | 50 | 1006.3 |
| 20260504231200 | 71 | 205 | 3.5 | 5.2 | 0.00 | 0.00 | 0.00 | 51 | 1006.3 |
| 20260504231100 | 71 | 116 | 0.9 | 5.2 | 0.00 | 0.00 | 0.00 | 51 | 1006.2 |
| 20260504231000 | 71 | 58 | 1.7 | 5.2 | 0.00 | 0.00 | 0.00 | 51 | 1006.3 |
| 20260504230758 | 71 | 232 | 1.7 | 5.2 | 0.00 | 0.00 | 0.00 | 51 | 1006.3 |
| 20260504230659 | 71 | 238 | 2.6 | 6.1 | 0.00 | 0.00 | 0.00 | 51 | 1006.3 |
| 20260504230600 | 71 | 254 | 0.0 | 6.1 | 0.00 | 0.00 | 0.00 | 52 | 1006.2 |
| 20260504230501 | 71 | 254 | 2.6 | 6.1 | 0.00 | 0.00 | 0.00 | 50 | 1006.2 |
| 20260504230159 | 72 | 252 | 2.6 | 14.8 | 0.00 | 0.00 | 0.00 | 51 | 1006.2 |
| 20260504230058 | 72 | 237 | 1.7 | 14.8 | 0.00 | 0.00 | 0.00 | 51 | 1006.2 |
| 20260504230000 | 72 | 230 | 0.9 | 14.8 | 0.00 | 0.00 | 0.00 | 50 | 1006.2 |
| 20260504225857 | 72 | 229 | 2.6 | 14.8 | 0.00 | 0.00 | 0.00 | 51 | 1006.5 |
| 20260504225558 | 72 | 113 | 1.7 | 14.8 | 0.00 | 0.00 | 0.00 | 51 | 1006.3 |
| 20260504225459 | 72 | 137 | 4.3 | 14.8 | 0.00 | 0.00 | 0.00 | 51 | 1006.1 |
| 20260504225358 | 72 | 156 | 13.9 | 14.8 | 0.00 | 0.00 | 0.00 | 50 | 1006.2 |
| 20260504225158 | 72 | 253 | 2.6 | 7.0 | 0.00 | 0.00 | 0.00 | 52 | 1006.3 |
| 20260504225058 | 72 | 253 | 1.7 | 7.0 | 0.00 | 0.00 | 0.00 | 51 | 1006.3 |
| 20260504225001 | 72 | 78 | 1.7 | 7.0 | 0.00 | 0.00 | 0.00 | 50 | 1006.3 |
| 20260504224858 | 72 | 173 | 2.6 | 7.0 | 0.00 | 0.00 | 0.00 | 50 | 1006.3 |
| 20260504224757 | 72 | 169 | 3.5 | 6.1 | 0.00 | 0.00 | 0.00 | 51 | 1006.2 |
| 20260504224658 | 72 | 229 | 1.7 | 6.1 | 0.00 | 0.00 | 0.00 | 51 | 1006.2 |
| 20260504224558 | 72 | 199 | 6.1 | 6.1 | 0.00 | 0.00 | 0.00 | 52 | 1006.3 |
| 20260504224502 | 72 | 333 | 3.5 | 6.1 | 0.00 | 0.00 | 0.00 | 51 | 1006.3 |
| 20260504224400 | 72 | 34 | 3.5 | 6.1 | 0.00 | 0.00 | 0.00 | 51 | 1006.3 |
| 20260504224258 | 72 | 265 | 1.7 | 6.1 | 0.00 | 0.00 | 0.00 | 52 | 1006.2 |
| 20260504224058 | 72 | 342 | 1.7 | 7.8 | 0.00 | 0.00 | 0.00 | 51 | 1006.2 |
| 20260504224001 | 72 | 344 | 1.7 | 7.8 | 0.00 | 0.00 | 0.00 | 51 | 1006.3 |
| 20260504223857 | 72 | 342 | 2.6 | 7.8 | 0.00 | 0.00 | 0.00 | 51 | 1006.2 |
| 20260504223759 | 72 | 75 | 2.6 | 7.8 | 0.00 | 0.00 | 0.00 | 50 | 1006.2 |
| 20260504223558 | 72 | 221 | 2.6 | 7.8 | 0.00 | 0.00 | 0.00 | 50 | 1006.3 |
| 20260504223459 | 72 | 123 | 0.9 | 7.8 | 0.00 | 0.00 | 0.00 | 51 | 1006.3 |
| 20260504223258 | 72 | 137 | 0.9 | 7.8 | 0.00 | 0.00 | 0.00 | 50 | 1006.3 |
| 20260504223059 | 72 | 65 | 1.7 | 4.3 | 0.00 | 0.00 | 0.00 | 52 | 1006.3 |
| 20260504223001 | 72 | 66 | 2.6 | 6.1 | 0.00 | 0.00 | 0.00 | 51 | 1006.4 |
| 20260504222759 | 72 | 66 | 0.9 | 6.1 | 0.00 | 0.00 | 0.00 | 51 | 1006.4 |
| 20260504222658 | 72 | 66 | 0.9 | 6.1 | 0.00 | 0.00 | 0.00 | 51 | 1006.5 |
| 20260504222500 | 72 | 66 | 2.6 | 9.6 | 0.00 | 0.00 | 0.00 | 51 | 1006.4 |
| 20260504222258 | 72 | 105 | 0.9 | 9.6 | 0.00 | 0.00 | 0.00 | 51 | 1006.4 |
| 20260504222158 | 72 | 152 | 1.7 | 9.6 | 0.00 | 0.00 | 0.00 | 50 | 1006.4 |
| 20260504222058 | 72 | 198 | 2.6 | 9.6 | 0.00 | 0.00 | 0.00 | 50 | 1006.3 |
| 20260504221959 | 72 | 281 | 2.6 | 9.6 | 0.00 | 0.00 | 0.00 | 51 | 1006.4 |
| 20260504221858 | 72 | 213 | 0.9 | 9.6 | 0.00 | 0.00 | 0.00 | 52 | 1006.4 |
| 20260504221758 | 72 | 213 | 0.0 | 9.6 | 0.00 | 0.00 | 0.00 | 51 | 1006.3 |
| 20260504221658 | 72 | 144 | 1.7 | 9.6 | 0.00 | 0.00 | 0.00 | 50 | 1006.3 |
| 20260504221558 | 72 | 86 | 4.3 | 9.6 | 0.00 | 0.00 | 0.00 | 51 | 1006.3 |
| 20260504221459 | 72 | 190 | 1.7 | 9.6 | 0.00 | 0.00 | 0.00 | 51 | 1006.3 |
| 20260504221358 | 72 | 262 | 3.5 | 9.6 | 0.00 | 0.00 | 0.00 | 50 | 1006.4 |
| 20260504221258 | 72 | 165 | 0.9 | 9.6 | 0.00 | 0.00 | 0.00 | 49 | 1006.4 |
| 20260504221158 | 72 | 165 | 3.5 | 9.6 | 0.00 | 0.00 | 0.00 | 49 | 1006.4 |
| 20260504221058 | 72 | 134 | 2.6 | 9.6 | 0.00 | 0.00 | 0.00 | 49 | 1006.4 |
| 20260504220959 | 72 | 268 | 0.9 | 9.6 | 0.00 | 0.00 | 0.00 | 50 | 1006.4 |
| 20260504220857 | 72 | 217 | 6.1 | 10.4 | 0.00 | 0.00 | 0.00 | 49 | 1006.5 |
| 20260504220758 | 72 | 226 | 2.6 | 9.6 | 0.00 | 0.00 | 0.00 | 50 | 1006.4 |
| 20260504220659 | 72 | 148 | 1.7 | 9.6 | 0.00 | 0.00 | 0.00 | 50 | 1006.4 |
| 20260504220558 | 72 | 273 | 5.2 | 9.6 | 0.00 | 0.00 | 0.00 | 50 | 1006.5 |
| 20260504220500 | 72 | 143 | 1.7 | 9.6 | 0.00 | 0.00 | 0.00 | 50 | 1006.4 |
| 20260504220358 | 72 | 223 | 1.7 | 9.6 | 0.00 | 0.00 | 0.00 | 50 | 1006.6 |
| 20260504220300 | 72 | 198 | 0.9 | 8.7 | 0.00 | 0.00 | 0.00 | 51 | 1006.4 |
| 20260504220058 | 72 | 248 | 8.7 | 9.6 | 0.00 | 0.00 | 0.00 | 50 | 1006.4 |
| 20260504220000 | 72 | 217 | 0.0 | 8.7 | 0.00 | 0.00 | 0.00 | 50 | 1006.4 |
| 20260504215857 | 72 | 217 | 0.9 | 8.7 | 0.00 | 0.00 | 0.00 | 50 | 1006.4 |
| 20260504215759 | 72 | 209 | 0.9 | 8.7 | 0.00 | 0.00 | 0.00 | 50 | 1006.3 |
| 20260504215658 | 72 | 103 | 5.2 | 8.7 | 0.00 | 0.00 | 0.00 | 49 | 1006.4 |
| 20260504215559 | 72 | 161 | 6.1 | 8.7 | 0.00 | 0.00 | 0.00 | 49 | 1006.5 |
| 20260504215500 | 72 | 247 | 1.7 | 8.7 | 0.00 | 0.00 | 0.00 | 52 | 1006.4 |
| 20260504215358 | 72 | 144 | 7.8 | 7.8 | 0.00 | 0.00 | 0.00 | 51 | 1006.4 |
| 20260504215158 | 72 | 223 | 2.6 | 7.8 | 0.00 | 0.00 | 0.00 | 51 | 1006.5 |
| 20260504215057 | 72 | 148 | 1.7 | 7.8 | 0.00 | 0.00 | 0.00 | 49 | 1006.4 |
| 20260504215001 | 72 | 183 | 5.2 | 7.8 | 0.00 | 0.00 | 0.00 | 49 | 1006.4 |
| 20260504214758 | 72 | 238 | 0.0 | 7.8 | 0.00 | 0.00 | 0.00 | 50 | 1006.4 |
| 20260504214659 | 72 | 238 | 0.9 | 7.8 | 0.00 | 0.00 | 0.00 | 51 | 1006.4 |
| 20260504214558 | 72 | 238 | 3.5 | 7.8 | 0.00 | 0.00 | 0.00 | 49 | 1006.3 |
| 20260504214458 | 72 | 307 | 2.6 | 7.8 | 0.00 | 0.00 | 0.00 | 51 | 1006.4 |
| 20260504214158 | 72 | 237 | 0.9 | 9.6 | 0.00 | 0.00 | 0.00 | 50 | 1006.4 |
| 20260504214058 | 72 | 236 | 3.5 | 9.6 | 0.00 | 0.00 | 0.00 | 49 | 1006.4 |
| 20260504213959 | 72 | 263 | 1.7 | 9.6 | 0.00 | 0.00 | 0.00 | 51 | 1006.4 |
| 20260504213857 | 72 | 197 | 0.9 | 9.6 | 0.00 | 0.00 | 0.00 | 51 | 1006.4 |
| 20260504213758 | 72 | 196 | 0.9 | 9.6 | 0.00 | 0.00 | 0.00 | 49 | 1006.4 |
| 20260504213658 | 72 | 208 | 1.7 | 9.6 | 0.00 | 0.00 | 0.00 | 49 | 1006.3 |
| 20260504213458 | 72 | 210 | 1.7 | 9.6 | 0.00 | 0.00 | 0.00 | 49 | 1006.4 |
| 20260504213358 | 72 | 239 | 5.2 | 9.6 | 0.00 | 0.00 | 0.00 | 49 | 1006.5 |
| 20260504213258 | 73 | 137 | 7.8 | 9.6 | 0.00 | 0.00 | 0.00 | 50 | 1006.4 |
| 20260504213058 | 73 | 255 | 2.6 | 9.6 | 0.00 | 0.00 | 0.00 | 49 | 1006.4 |
| 20260504212857 | 73 | 195 | 1.7 | 9.6 | 0.00 | 0.00 | 0.00 | 49 | 1006.4 |
| 20260504212758 | 73 | 259 | 6.1 | 9.6 | 0.00 | 0.00 | 0.00 | 50 | 1006.4 |
| 20260504212558 | 73 | 202 | 1.7 | 9.6 | 0.00 | 0.00 | 0.00 | 50 | 1006.4 |
| 20260504212459 | 73 | 202 | 0.9 | 9.6 | 0.00 | 0.00 | 0.00 | 49 | 1006.4 |
| 20260504212258 | 73 | 244 | 2.6 | 9.6 | 0.00 | 0.00 | 0.00 | 50 | 1006.4 |
| 20260504212158 | 73 | 146 | 3.5 | 8.7 | 0.00 | 0.00 | 0.00 | 50 | 1006.4 |
| 20260504212057 | 73 | 169 | 6.1 | 7.0 | 0.00 | 0.00 | 0.00 | 50 | 1006.3 |
| 20260504212000 | 73 | 279 | 3.5 | 7.0 | 0.00 | 0.00 | 0.00 | 49 | 1006.4 |
| 20260504211857 | 73 | 128 | 4.3 | 7.0 | 0.00 | 0.00 | 0.00 | 51 | 1006.4 |
| 20260504211758 | 73 | 157 | 2.6 | 7.0 | 0.00 | 0.00 | 0.00 | 49 | 1006.3 |
| 20260504211657 | 73 | 173 | 4.3 | 7.0 | 0.00 | 0.00 | 0.00 | 51 | 1006.3 |
| 20260504211557 | 73 | 180 | 1.7 | 7.0 | 0.00 | 0.00 | 0.00 | 51 | 1006.3 |
| 20260504211458 | 73 | 159 | 0.9 | 4.3 | 0.00 | 0.00 | 0.00 | 49 | 1006.3 |
| 20260504211357 | 73 | 142 | 3.5 | 4.3 | 0.00 | 0.00 | 0.00 | 49 | 1006.3 |
| 20260504211258 | 73 | 189 | 3.5 | 5.2 | 0.00 | 0.00 | 0.00 | 51 | 1006.3 |
| 20260504211158 | 73 | 355 | 3.5 | 3.5 | 0.00 | 0.00 | 0.00 | 52 | 1006.3 |
| 20260504211058 | 73 | 232 | 2.6 | 4.3 | 0.00 | 0.00 | 0.00 | 51 | 1006.3 |
| 20260504210959 | 73 | 229 | 0.9 | 4.3 | 0.00 | 0.00 | 0.00 | 49 | 1006.3 |
| 20260504210859 | 73 | 229 | 1.7 | 4.3 | 0.00 | 0.00 | 0.00 | 48 | 1006.3 |
| 20260504210758 | 73 | 138 | 0.9 | 4.3 | 0.00 | 0.00 | 0.00 | 51 | 1006.3 |
| 20260504210700 | 73 | 138 | 1.7 | 4.3 | 0.00 | 0.00 | 0.00 | 49 | 1006.3 |
| 20260504210557 | 73 | 142 | 0.9 | 4.3 | 0.00 | 0.00 | 0.00 | 49 | 1006.3 |
| 20260504210500 | 73 | 22 | 1.7 | 4.3 | 0.00 | 0.00 | 0.00 | 50 | 1006.3 |
| 20260504210257 | 73 | 55 | 0.9 | 9.6 | 0.00 | 0.00 | 0.00 | 49 | 1006.3 |
| 20260504210157 | 73 | 55 | 1.7 | 9.6 | 0.00 | 0.00 | 0.00 | 49 | 1006.4 |
| 20260504210058 | 73 | 347 | 2.6 | 9.6 | 0.00 | 0.00 | 0.00 | 50 | 1006.4 |
| 20260504210004 | 73 | 5 | 0.0 | 9.6 | 0.00 | 0.00 | 0.00 | 49 | 1006.3 |
| 20260504205759 | 73 | 332 | 1.7 | 9.6 | 0.00 | 0.00 | 0.00 | 49 | 1006.3 |
| 20260504205700 | 73 | 185 | 2.6 | 9.6 | 0.00 | 0.00 | 0.00 | 47 | 1006.3 |
| 20260504205600 | 73 | 151 | 2.6 | 9.6 | 0.00 | 0.00 | 0.00 | 48 | 1006.2 |
| 20260504205504 | 73 | 200 | 2.6 | 9.6 | 0.00 | 0.00 | 0.00 | 49 | 1006.2 |
| 20260504205359 | 73 | 140 | 7.0 | 9.6 | 0.00 | 0.00 | 0.00 | 49 | 1006.4 |
| 20260504205259 | 73 | 293 | 1.7 | 6.1 | 0.00 | 0.00 | 0.00 | 49 | 1006.4 |
| 20260504205159 | 73 | 265 | 1.7 | 6.1 | 0.00 | 0.00 | 0.00 | 48 | 1006.4 |
| 20260504205059 | 73 | 219 | 0.9 | 6.1 | 0.00 | 0.00 | 0.00 | 49 | 1006.3 |
| 20260504205000 | 73 | 203 | 1.7 | 6.1 | 0.00 | 0.00 | 0.00 | 50 | 1006.3 |
| 20260504204900 | 73 | 142 | 0.9 | 6.1 | 0.00 | 0.00 | 0.00 | 50 | 1006.3 |
| 20260504204759 | 73 | 259 | 1.7 | 6.1 | 0.00 | 0.00 | 0.00 | 51 | 1006.3 |
| 20260504204700 | 73 | 257 | 0.9 | 8.7 | 0.00 | 0.00 | 0.00 | 50 | 1006.4 |
| 20260504204559 | 73 | 273 | 3.5 | 10.4 | 0.00 | 0.00 | 0.00 | 48 | 1006.4 |
| 20260504204501 | 73 | 252 | 3.5 | 10.4 | 0.00 | 0.00 | 0.00 | 48 | 1006.4 |
| 20260504204300 | 73 | 296 | 1.7 | 10.4 | 0.00 | 0.00 | 0.00 | 49 | 1006.5 |
| 20260504204058 | 73 | 235 | 3.5 | 10.4 | 0.00 | 0.00 | 0.00 | 49 | 1006.5 |
| 20260504204005 | 73 | 205 | 3.5 | 10.4 | 0.00 | 0.00 | 0.00 | 47 | 1006.5 |
| 20260504203859 | 73 | 221 | 0.0 | 10.4 | 0.00 | 0.00 | 0.00 | 48 | 1006.5 |
| 20260504203758 | 73 | 193 | 2.6 | 10.4 | 0.00 | 0.00 | 0.00 | 50 | 1006.4 |
| 20260504203559 | 73 | 223 | 4.3 | 7.8 | 0.00 | 0.00 | 0.00 | 51 | 1006.4 |
| 20260504203504 | 73 | 331 | 1.7 | 7.8 | 0.00 | 0.00 | 0.00 | 49 | 1006.4 |
| 20260504203401 | 73 | 190 | 1.7 | 7.8 | 0.00 | 0.00 | 0.00 | 48 | 1006.5 |
| 20260504203300 | 73 | 211 | 1.7 | 7.8 | 0.00 | 0.00 | 0.00 | 48 | 1006.4 |
| 20260504203200 | 73 | 211 | 0.0 | 7.8 | 0.00 | 0.00 | 0.00 | 49 | 1006.4 |
| 20260504203004 | 73 | 186 | 2.6 | 7.8 | 0.00 | 0.00 | 0.00 | 49 | 1006.7 |
| 20260504202859 | 73 | 239 | 4.3 | 10.4 | 0.00 | 0.00 | 0.00 | 49 | 1006.6 |
| 20260504202759 | 73 | 199 | 4.3 | 10.4 | 0.00 | 0.00 | 0.00 | 49 | 1006.6 |
| 20260504202700 | 73 | 198 | 1.7 | 10.4 | 0.00 | 0.00 | 0.00 | 51 | 1006.6 |
| 20260504202502 | 72 | 201 | 0.9 | 10.4 | 0.00 | 0.00 | 0.00 | 50 | 1006.7 |
| 20260504202400 | 72 | 213 | 2.6 | 10.4 | 0.00 | 0.00 | 0.00 | 48 | 1006.7 |
| 20260504202300 | 72 | 173 | 2.6 | 10.4 | 0.00 | 0.00 | 0.00 | 48 | 1006.7 |
| 20260504202159 | 72 | 190 | 2.6 | 10.4 | 0.00 | 0.00 | 0.00 | 48 | 1006.7 |
| 20260504202059 | 72 | 148 | 7.0 | 10.4 | 0.00 | 0.00 | 0.00 | 49 | 1006.7 |
| 20260504202005 | 72 | 200 | 1.7 | 10.4 | 0.00 | 0.00 | 0.00 | 49 | 1006.7 |
| 20260504201859 | 72 | 105 | 3.5 | 7.8 | 0.00 | 0.00 | 0.00 | 49 | 1006.7 |
| 20260504201759 | 72 | 145 | 1.7 | 7.8 | 0.00 | 0.00 | 0.00 | 48 | 1006.7 |
| 20260504201659 | 72 | 146 | 2.6 | 7.8 | 0.00 | 0.00 | 0.00 | 48 | 1006.7 |
| 20260504201600 | 72 | 105 | 7.8 | 7.8 | 0.00 | 0.00 | 0.00 | 48 | 1006.9 |
| 20260504201503 | 72 | 278 | 2.6 | 7.8 | 0.00 | 0.00 | 0.00 | 47 | 1006.8 |
| 20260504201259 | 73 | 149 | 7.0 | 8.7 | 0.00 | 0.00 | 0.00 | 49 | 1006.8 |
| 20260504201159 | 73 | 243 | 3.5 | 8.7 | 0.00 | 0.00 | 0.00 | 48 | 1006.9 |
| 20260504201059 | 73 | 157 | 1.7 | 8.7 | 0.00 | 0.00 | 0.00 | 50 | 1006.9 |
| 20260504201005 | 73 | 157 | 0.9 | 8.7 | 0.00 | 0.00 | 0.00 | 49 | 1006.9 |
| 20260504200859 | 73 | 142 | 3.5 | 8.7 | 0.00 | 0.00 | 0.00 | 48 | 1006.9 |
| 20260504200800 | 73 | 184 | 3.5 | 8.7 | 0.00 | 0.00 | 0.00 | 49 | 1006.8 |
| 20260504200701 | 73 | 142 | 4.3 | 8.7 | 0.00 | 0.00 | 0.00 | 48 | 1006.8 |
| 20260504200559 | 73 | 144 | 5.2 | 8.7 | 0.00 | 0.00 | 0.00 | 48 | 1006.8 |
| 20260504200504 | 73 | 151 | 0.9 | 8.7 | 0.00 | 0.00 | 0.00 | 49 | 1006.9 |
| 20260504200401 | 72 | 153 | 2.6 | 7.8 | 0.00 | 0.00 | 0.00 | 50 | 1006.9 |
| 20260504200300 | 72 | 98 | 0.0 | 9.6 | 0.00 | 0.00 | 0.00 | 50 | 1006.9 |
| 20260504200159 | 72 | 98 | 0.9 | 9.6 | 0.00 | 0.00 | 0.00 | 50 | 1006.9 |
| 20260504200059 | 72 | 98 | 0.9 | 9.6 | 0.00 | 0.00 | 0.00 | 48 | 1006.9 |
| 20260504200000 | 72 | 203 | 3.5 | 9.6 | 0.00 | 0.00 | 0.00 | 49 | 1007.0 |
| 20260504195858 | 72 | 200 | 2.6 | 9.6 | 0.00 | 0.00 | 0.00 | 50 | 1007.0 |
| 20260504195758 | 72 | 199 | 0.9 | 9.6 | 0.00 | 0.00 | 0.00 | 53 | 1007.0 |
| 20260504195659 | 72 | 200 | 0.9 | 9.6 | 0.00 | 0.00 | 0.00 | 48 | 1007.0 |
| 20260504195558 | 72 | 155 | 3.5 | 9.6 | 0.00 | 0.00 | 0.00 | 49 | 1007.0 |
| 20260504195501 | 72 | 288 | 6.1 | 9.6 | 0.00 | 0.00 | 0.00 | 49 | 1007.0 |
| 20260504195359 | 72 | 264 | 2.6 | 9.6 | 0.00 | 0.00 | 0.00 | 51 | 1007.0 |
| 20260504195300 | 72 | 183 | 6.1 | 9.6 | 0.00 | 0.00 | 0.00 | 48 | 1007.1 |